Provisional Data: Susquehanna River near Binghamton, NY


Please select a monitoring station.
Please select start date.
Please select start date.

Toggle Unit: C/F Toggle Unit: C/F
Sample Time Temperature (C) Temperature (F) Specific Conductivity (mS/cm) pH   Turbidity (NTU+) DO (mg/L)
12/23/2022 12:00:00 AM 6.2437 6.9916
12/23/2022 12:15:00 AM 6.2538 7.1669
12/23/2022 12:30:00 AM 6.2548 6.9208
12/23/2022 12:45:00 AM 6.2445 8.9187
12/23/2022 1:00:00 AM 6.2409 13.8851
12/23/2022 1:15:00 AM 6.2569 25.499
12/23/2022 1:30:00 AM 6.2597 39.9591
12/23/2022 1:45:00 AM 6.2433 54.1324
12/23/2022 2:00:00 AM 6.2236 81.3028
12/23/2022 2:15:00 AM 6.2217 106.8735
12/23/2022 2:30:00 AM 6.2186 119.5865
12/23/2022 2:45:00 AM 6.2132 131.7998
12/23/2022 3:00:00 AM 6.1972 175.4991
12/23/2022 3:15:00 AM 6.1897 211.7781
12/23/2022 3:30:00 AM 6.1798 257.6277
12/23/2022 3:45:00 AM 6.1673 318.4102
12/23/2022 4:00:00 AM 6.1559 373.0144
12/23/2022 4:15:00 AM 6.1434 446.986
12/23/2022 4:30:00 AM 6.1384 495.021
12/23/2022 4:45:00 AM 6.1264 519.8734
12/23/2022 5:00:00 AM 6.1228 525.9472
12/23/2022 5:15:00 AM 6.1123 533.0826
12/23/2022 5:30:00 AM 6.119 532.3089
12/23/2022 5:45:00 AM 6.0746 524.4999
12/23/2022 6:00:00 AM 6.0407 520.1583
12/23/2022 6:15:00 AM 6.0107 516.1239
12/23/2022 6:30:00 AM 5.9952 500.1148
12/23/2022 6:45:00 AM 5.9997 473.7739
12/23/2022 7:00:00 AM 6.02 457.8936
12/23/2022 7:15:00 AM 6.0817 421.5204
12/23/2022 7:30:00 AM 6.0932 407.7527
12/23/2022 7:45:00 AM 6.1264 395.7528
12/23/2022 8:00:00 AM 6.202 376.6242
12/23/2022 8:15:00 AM 6.2594 354.9888
12/23/2022 8:30:00 AM 6.2205 333.6392
12/23/2022 8:45:00 AM 6.223 323.3999
12/23/2022 9:00:00 AM 6.146 302.034
12/23/2022 9:15:00 AM 6.0413 290.0777
12/23/2022 9:30:00 AM 5.9208 277.5368
12/23/2022 9:45:00 AM 5.899 261.611
12/23/2022 10:00:00 AM 5.8849 249.4564
12/23/2022 10:15:00 AM 5.8778 236.4947
12/23/2022 10:30:00 AM 5.8836 228.1924
12/23/2022 10:45:00 AM 5.9007 223.2563
12/23/2022 11:00:00 AM 5.9243 223.0491
12/23/2022 11:15:00 AM 5.9545 219.6874
12/23/2022 11:30:00 AM 5.9644 218.1789
12/23/2022 11:45:00 AM 5.9556 217.1999
12/23/2022 12:00:00 PM 5.9757 220.609
12/23/2022 12:15:00 PM 5.9998 224.0784
12/23/2022 12:30:00 PM 5.9886 227.4564
12/23/2022 12:45:00 PM 6.0039 226.4681
12/23/2022 1:00:00 PM 5.9916 224.4081
12/23/2022 1:15:00 PM 6.0341 219.9495
12/23/2022 1:30:00 PM 6.1335 213.1009
12/23/2022 1:45:00 PM 6.2214 203.8272
12/23/2022 2:00:00 PM 6.2315 193.9338
12/23/2022 2:15:00 PM 6.2137 182.9584
12/23/2022 2:30:00 PM 6.2051 175.245
12/23/2022 2:45:00 PM 6.1843 167.591
12/23/2022 3:00:00 PM 6.1346 160.0281
12/23/2022 3:15:00 PM 6.1524 154.9658
12/23/2022 3:30:00 PM 6.1722 150.2505
12/23/2022 3:45:00 PM 6.1352 141.7901
12/23/2022 4:00:00 PM 6.1118 134.3024
12/23/2022 4:15:00 PM 6.1033 127.6333
12/23/2022 4:30:00 PM 6.0875 123.1971
12/23/2022 4:45:00 PM 6.088 117.7087
12/23/2022 5:00:00 PM 6.0989 112.7128
12/23/2022 5:15:00 PM 6.0856 108.5994
12/23/2022 5:30:00 PM 6.0766 105.895
12/23/2022 5:45:00 PM 6.0746 104.7
12/23/2022 6:00:00 PM 6.0736 98.9281
12/23/2022 6:15:00 PM 6.0452 94.5075
12/23/2022 6:30:00 PM 5.9867 91.7108
12/23/2022 6:45:00 PM 5.9847 88.4883
12/23/2022 7:00:00 PM 5.9776 85.1698
12/23/2022 7:15:00 PM 5.9719 82.2724
12/23/2022 7:30:00 PM 5.9778 80.1824
12/23/2022 7:45:00 PM 5.9786 77.4548
12/23/2022 8:00:00 PM 5.9885 74.2624
12/23/2022 8:15:00 PM 5.9786 71.5492
12/23/2022 8:30:00 PM 5.9854 69.0964
12/23/2022 8:45:00 PM 5.9864 67.4
12/23/2022 9:00:00 PM 5.9789 63.8924
12/23/2022 9:15:00 PM 5.9616 61.6409
12/23/2022 9:30:00 PM 5.9517 59.4788
12/23/2022 9:45:00 PM 5.9557 56.8938
12/23/2022 10:00:00 PM 5.9568 54.7411
12/23/2022 10:15:00 PM 5.9652 52.3478
12/23/2022 10:30:00 PM 5.9763 54.7421
12/23/2022 10:45:00 PM 5.9911 51.4157
12/23/2022 11:00:00 PM 5.9935 49.0691
12/23/2022 11:15:00 PM 6.016 47.1397
12/23/2022 11:30:00 PM 6.0313 45.0715
12/23/2022 11:45:00 PM 6.0144 44
12/24/2022 12:00:00 AM 5.9901 42.7023
12/24/2022 12:15:00 AM 6.0182 41.14
12/24/2022 12:30:00 AM 6.0035 40.6104
12/24/2022 12:45:00 AM 6.0016 39.0054
12/24/2022 1:00:00 AM 6.0089 38.4967
12/24/2022 1:15:00 AM 6.0187 38.195
12/24/2022 1:30:00 AM 6.0254 38.0603
12/24/2022 1:45:00 AM 6.0102 36.9887
12/24/2022 2:00:00 AM 6.0037 37.2359
12/24/2022 2:15:00 AM 6.0001 36.6533
12/24/2022 2:30:00 AM 5.9976 37.07
12/24/2022 2:45:00 AM 5.9962 36.4
12/24/2022 3:00:00 AM 5.9942 36.0428
12/24/2022 3:15:00 AM 5.9901 35.276
12/24/2022 3:30:00 AM 5.9899 35.5796
12/24/2022 3:45:00 AM 5.9887 35.1686
12/24/2022 4:00:00 AM 5.9889 34.6432
12/24/2022 4:15:00 AM 5.9849 34.3161
12/24/2022 4:30:00 AM 5.9876 34.1191
12/24/2022 4:45:00 AM 5.985 33.4735
12/24/2022 5:00:00 AM 5.985 33.8308
12/24/2022 5:15:00 AM 5.9859 33.1772
12/24/2022 5:30:00 AM 5.9853 33.2072
12/24/2022 5:45:00 AM 5.992 32.4
12/24/2022 6:00:00 AM 6.001 32.0814
12/24/2022 6:15:00 AM 6.0382 30.9027
12/24/2022 6:30:00 AM 6.0869 31.5861
12/24/2022 6:45:00 AM 6.1546 32.5699
12/24/2022 7:00:00 AM 6.1499 35.0817
12/24/2022 7:15:00 AM 6.124 41.665
12/24/2022 7:30:00 AM 6.2004 47.8532
12/24/2022 7:45:00 AM 6.2185 47.1919
12/24/2022 8:00:00 AM 6.1717 42.872
12/24/2022 8:15:00 AM 6.1643 38.2768
12/24/2022 8:30:00 AM 6.1753 34.9182
12/24/2022 8:45:00 AM 6.1824 33
12/24/2022 9:00:00 AM 6.2011 30.3571
12/24/2022 9:15:00 AM 6.1695 28.3509
12/24/2022 9:30:00 AM 6.1357 27.3329
12/24/2022 9:45:00 AM 6.0977 25.5806
12/24/2022 10:00:00 AM 6.0794 24.9766
12/24/2022 10:15:00 AM 6.0971 23.4256
12/24/2022 10:30:00 AM 6.0814 22.8526
12/24/2022 10:45:00 AM 6.0924 21.4658
12/24/2022 11:00:00 AM 6.0733 20.7436
12/24/2022 11:15:00 AM 6.0524 19.7081
12/24/2022 11:30:00 AM 6.0372 19.7564
12/24/2022 11:45:00 AM 6.0382 19.5
12/24/2022 12:00:00 PM 6.0263 19.7617
12/24/2022 12:15:00 PM 6.0249 19.6147
12/24/2022 12:30:00 PM 6.0242 19.7283
12/24/2022 12:45:00 PM 6.0261 19.4308
12/24/2022 1:00:00 PM 6.0196 19.9051
12/24/2022 1:15:00 PM 6.0188 19.8693
12/24/2022 1:30:00 PM 6.009 20.3281
12/24/2022 1:45:00 PM 6.0047 20.3536
12/24/2022 2:00:00 PM 6.0034 20.6908
12/24/2022 2:15:00 PM 6.0027 20.7783
12/24/2022 2:30:00 PM 6.0031 21.2442
12/24/2022 2:45:00 PM 6.0025 21.4252
12/24/2022 3:00:00 PM 6.0064 21.5286
12/24/2022 3:15:00 PM 6.0062 21.3455
12/24/2022 3:30:00 PM 5.987 21.7314
12/24/2022 3:45:00 PM 5.9682 21.3396
12/24/2022 4:00:00 PM 5.9588 21.2518
12/24/2022 4:15:00 PM 5.9544 20.9867
12/24/2022 4:30:00 PM 5.9481 21.1696
12/24/2022 4:45:00 PM 5.9438 21.1722
12/24/2022 5:00:00 PM 5.9413 21.0584
12/24/2022 5:15:00 PM 5.9396 20.7519
12/24/2022 5:30:00 PM 5.9391 20.9459
12/24/2022 5:45:00 PM 5.9374 20.4999
12/24/2022 6:00:00 PM 5.9406 21.1738
12/24/2022 6:15:00 PM 5.9404 21.6857
12/24/2022 6:30:00 PM 5.9413 22.7284
12/24/2022 6:45:00 PM 5.9387 22.161
12/24/2022 7:00:00 PM 5.9382 21.869
12/24/2022 7:15:00 PM 5.9398 21.2896
12/24/2022 7:30:00 PM 5.9392 21.2063
12/24/2022 7:45:00 PM 5.9416 20.7589
12/24/2022 8:00:00 PM 5.9443 21.0148
12/24/2022 8:15:00 PM 5.9416 20.6634
12/24/2022 8:30:00 PM 5.9391 20.6701
12/24/2022 8:45:00 PM 5.943 20.5
12/24/2022 9:00:00 PM 5.9369 20.5422
12/24/2022 9:15:00 PM 5.9401 29.6057
12/24/2022 9:30:00 PM 5.9525 20.4915
12/24/2022 9:45:00 PM 5.9482 19.6667
12/24/2022 10:00:00 PM 5.9473 19.491
12/24/2022 10:15:00 PM 5.9443 19.0324
12/24/2022 10:30:00 PM 5.9466 18.8395
12/24/2022 10:45:00 PM 5.9473 18.399
12/24/2022 11:00:00 PM 5.9469 18.1028
12/24/2022 11:15:00 PM 5.9497 17.5508
12/24/2022 11:30:00 PM 5.9487 17.3098
12/24/2022 11:45:00 PM 5.943 16.9
12/25/2022 12:00:00 AM 5.9447 17.1242
12/25/2022 12:15:00 AM 5.9429 16.8527
12/25/2022 12:30:00 AM 5.9445 16.9507
12/25/2022 12:45:00 AM 5.9458 16.8535
12/25/2022 1:00:00 AM 5.9509 16.8964
12/25/2022 1:15:00 AM 5.968 16.2474
12/25/2022 1:30:00 AM 5.9657 15.9331
12/25/2022 1:45:00 AM 5.9627 15.4842
12/25/2022 2:00:00 AM 5.9613 15.364
12/25/2022 2:15:00 AM 5.9554 15.1844
12/25/2022 2:30:00 AM 5.9495 15.1435
12/25/2022 2:45:00 AM 5.9472 14.7
12/25/2022 3:00:00 AM 5.9465 14.8159
12/25/2022 3:15:00 AM 5.9467 14.6456
12/25/2022 3:30:00 AM 5.9446 14.6132
12/25/2022 3:45:00 AM 5.9431 14.1992
12/25/2022 4:00:00 AM 5.9416 14.1519
12/25/2022 4:15:00 AM 5.9416 13.9529
12/25/2022 4:30:00 AM 5.9417 13.9467
12/25/2022 4:45:00 AM 5.9435 13.7267
12/25/2022 5:00:00 AM 5.9449 13.7858
12/25/2022 5:15:00 AM 5.9498 13.4981
12/25/2022 5:30:00 AM 5.9473 13.5095
12/25/2022 5:45:00 AM 5.9472 13.4
12/25/2022 6:00:00 AM 5.9493 13.4553
12/25/2022 6:15:00 AM 5.9502 13.2907
12/25/2022 6:30:00 AM 5.95 13.2017
12/25/2022 6:45:00 AM 5.9464 13.027
12/25/2022 7:00:00 AM 5.9473 13.1097
12/25/2022 7:15:00 AM 5.9465 12.9008
12/25/2022 7:30:00 AM 5.9524 12.8537
12/25/2022 7:45:00 AM 5.9512 12.7729
12/25/2022 8:00:00 AM 5.9465 13.0239
12/25/2022 8:15:00 AM 5.9465 12.8398
12/25/2022 8:30:00 AM 5.9477 12.6697
12/25/2022 8:45:00 AM 5.9472 12.5
12/25/2022 9:00:00 AM 5.949 12.4817
12/25/2022 9:15:00 AM 5.9484 12.3723
12/25/2022 9:30:00 AM 5.9478 12.3645
12/25/2022 9:45:00 AM 5.9437 12.1333
12/25/2022 10:00:00 AM 5.9409 12.1476
12/25/2022 10:15:00 AM 5.9371 11.9992
12/25/2022 10:30:00 AM 5.9362 12.0313
12/25/2022 10:45:00 AM 5.9351 11.8728
12/25/2022 11:00:00 AM 5.9327 11.868
12/25/2022 11:15:00 AM 5.9297 11.7187
12/25/2022 11:30:00 AM 5.9293 11.6438
12/25/2022 11:45:00 AM 5.9346 11.6
12/25/2022 12:00:00 PM 5.9318 11.464
12/25/2022 12:15:00 PM 5.9297 11.4294
12/25/2022 12:30:00 PM 5.9268 11.4977
12/25/2022 12:45:00 PM 5.9332 11.3783
12/25/2022 1:00:00 PM 5.941 11.45
12/25/2022 1:15:00 PM 5.9514 11.3766
12/25/2022 1:30:00 PM 5.9421 11.2444
12/25/2022 1:45:00 PM 5.94 11.2806
12/25/2022 2:00:00 PM 5.9508 11.2323
12/25/2022 2:15:00 PM 5.982 11.1311
12/25/2022 2:30:00 PM 5.9619 11.1438
12/25/2022 2:45:00 PM 5.9528 11.1426
12/25/2022 3:00:00 PM 5.9492 11.2484
12/25/2022 3:15:00 PM 5.944 11.1662
12/25/2022 3:30:00 PM 5.937 11.2461
12/25/2022 3:45:00 PM 5.938 11.1716
12/25/2022 4:00:00 PM 5.936 11.1803
12/25/2022 4:15:00 PM 5.9451 11.0074
12/25/2022 4:30:00 PM 5.9737 10.9879
12/25/2022 4:45:00 PM 5.9948 10.7851
12/25/2022 5:00:00 PM 5.9634 10.7224
12/25/2022 5:15:00 PM 5.9646 10.4809
12/25/2022 5:30:00 PM 5.9681 10.3107
12/25/2022 5:45:00 PM 5.9906 10.1
12/25/2022 6:00:00 PM 6.014 10.0003
12/25/2022 6:15:00 PM 5.9839 9.7695
12/25/2022 6:30:00 PM 5.9778 9.6497
12/25/2022 6:45:00 PM 5.9431 9.4672
12/25/2022 7:00:00 PM 5.9329 9.3236
12/25/2022 7:15:00 PM 5.9247 9.1317
12/25/2022 7:30:00 PM 5.9179 9.0678
12/25/2022 7:45:00 PM 5.9208 8.9057
12/25/2022 8:00:00 PM 5.9224 8.8142
12/25/2022 8:15:00 PM 5.9237 8.6173
12/25/2022 8:30:00 PM 5.9228 8.5386
12/25/2022 8:45:00 PM 5.9192 8.4
12/25/2022 9:00:00 PM 5.9267 8.3407
12/25/2022 9:15:00 PM 5.9273 8.3578
12/25/2022 9:30:00 PM 5.9245 8.7799
12/25/2022 9:45:00 PM 5.9243 11.566
12/25/2022 10:00:00 PM 5.9227 14.72
12/25/2022 10:15:00 PM 5.9394 18.9535
12/25/2022 10:30:00 PM 5.948 19.0894
12/25/2022 10:45:00 PM 5.9308 19.2842
12/25/2022 11:00:00 PM 5.9259 18.9862
12/25/2022 11:15:00 PM 5.9275 19.0852
12/25/2022 11:30:00 PM 5.9222 18.7842
12/25/2022 11:45:00 PM 5.9234 18.8
12/26/2022 12:00:00 AM 5.9257 18.551
12/26/2022 12:15:00 AM 5.9285 18.522
12/26/2022 12:30:00 AM 5.933 18.3241
12/26/2022 12:45:00 AM 5.9456 18.2986
12/26/2022 1:00:00 AM 5.9494 22.3261
12/26/2022 1:15:00 AM 6.0172 17.9457
12/26/2022 1:30:00 AM 6.0161 17.6953
12/26/2022 1:45:00 AM 5.9966 17.6525
12/26/2022 2:00:00 AM 5.9734 17.4615
12/26/2022 2:15:00 AM 5.9872 17.3966
12/26/2022 2:30:00 AM 5.9665 17.2473
12/26/2022 2:45:00 AM 5.9612 17.2
12/26/2022 3:00:00 AM 5.957 17.0062
12/26/2022 3:15:00 AM 5.9677 16.8856
12/26/2022 3:30:00 AM 5.9602 16.7761
12/26/2022 3:45:00 AM 5.9601 16.5857
12/26/2022 4:00:00 AM 5.9503 16.5524
12/26/2022 4:15:00 AM 5.9486 16.288
12/26/2022 4:30:00 AM 5.9476 16.3152
12/26/2022 4:45:00 AM 5.9485 16.1793
12/26/2022 5:00:00 AM 5.9578 16.0802
12/26/2022 5:15:00 AM 5.9581 15.9285
12/26/2022 5:30:00 AM 5.9468 15.8209
12/26/2022 5:45:00 AM 5.9528 15.8
12/26/2022 6:00:00 AM 5.9572 15.4473
12/26/2022 6:15:00 AM 5.9542 15.182
12/26/2022 6:30:00 AM 5.9461 15.1522
12/26/2022 6:45:00 AM 5.9463 14.9624
12/26/2022 7:00:00 AM 5.9539 14.8848
12/26/2022 7:15:00 AM 5.9482 14.7354
12/26/2022 7:30:00 AM 5.948 14.6411
12/26/2022 7:45:00 AM 5.9457 14.5183
12/26/2022 8:00:00 AM 5.9418 14.4247
12/26/2022 8:15:00 AM 5.9416 14.2155
12/26/2022 8:30:00 AM 5.9444 14.18
12/26/2022 8:45:00 AM 5.9458 14.1001
12/26/2022 9:00:00 AM 5.9517 13.8985
12/26/2022 9:15:00 AM 5.9604 13.7364
12/26/2022 9:30:00 AM 5.9568 13.7416
12/26/2022 9:45:00 AM 5.9645 13.6025
12/26/2022 10:00:00 AM 5.9765 13.5157
12/26/2022 10:15:00 AM 5.9554 13.4429
12/26/2022 10:30:00 AM 5.9728 13.4433
12/26/2022 10:45:00 AM 5.9968 13.3114
12/26/2022 11:00:00 AM 5.9725 13.2467
12/26/2022 11:15:00 AM 5.9689 13.0996
12/26/2022 11:30:00 AM 5.989 13.0236
12/26/2022 11:45:00 AM 6.0046 13
12/26/2022 12:00:00 PM 5.9973 12.9198
12/26/2022 12:15:00 PM 5.9772 12.9372
12/26/2022 12:30:00 PM 6.0054 12.9202
12/26/2022 12:45:00 PM 6.0592 12.8508
12/26/2022 1:00:00 PM 6.0715 12.7868
12/26/2022 1:15:00 PM 6.0234 12.6478
12/26/2022 1:30:00 PM 6.0145 12.6044
12/26/2022 1:45:00 PM 6.0286 12.5041
12/26/2022 2:00:00 PM 6.0123 12.4731
12/26/2022 2:15:00 PM 6.0433 12.4851
12/26/2022 2:30:00 PM 6.0971 12.4838
12/26/2022 2:45:00 PM 6.0942 12.4255
12/26/2022 3:00:00 PM 6.1024 12.4458
12/26/2022 3:15:00 PM 6.131 12.3254
12/26/2022 3:30:00 PM 6.1531 12.3435
12/26/2022 3:45:00 PM 6.1353 12.3489
12/26/2022 4:00:00 PM 6.1323 12.3004
12/26/2022 4:15:00 PM 6.0999 12.1782
12/26/2022 4:30:00 PM 6.155 12.2568
12/26/2022 4:45:00 PM 6.1514 12.248
12/26/2022 5:00:00 PM 6.2303 12.1694
12/26/2022 5:15:00 PM 6.1769 11.9863
12/26/2022 5:30:00 PM 6.165 11.9694
12/26/2022 5:45:00 PM 6.1684 12
12/26/2022 6:00:00 PM 6.1317 11.7749
12/26/2022 6:15:00 PM 6.1545 11.6153
12/26/2022 6:30:00 PM 6.139 11.5194
12/26/2022 6:45:00 PM 6.1358 11.3513
12/26/2022 7:00:00 PM 6.1518 11.2918
12/26/2022 7:15:00 PM 6.2173 11.182
12/26/2022 7:30:00 PM 6.1987 11.0802
12/26/2022 7:45:00 PM 6.1697 10.9405
12/26/2022 8:00:00 PM 6.1681 10.8864
12/26/2022 8:15:00 PM 6.1445 10.7706
12/26/2022 8:30:00 PM 6.1201 10.6142
12/26/2022 8:45:00 PM 6.1236 10.6
12/26/2022 9:00:00 PM 6.0993 10.4942
12/26/2022 9:15:00 PM 6.0947 10.4269
12/26/2022 9:30:00 PM 6.0808 10.261
12/26/2022 9:45:00 PM 6.0784 10.1018
12/26/2022 10:00:00 PM 6.0993 10.0589
12/26/2022 10:15:00 PM 6.0993 10.0287
12/26/2022 10:30:00 PM 6.0947 9.9692
12/26/2022 10:45:00 PM 6.0988 9.9285
12/26/2022 11:00:00 PM 6.1083 9.8621
12/26/2022 11:15:00 PM 6.1148 9.8418
12/26/2022 11:30:00 PM 6.1122 9.8273
12/26/2022 11:45:00 PM 6.1068 9.7999
12/27/2022 12:00:00 AM 6.0701 9.6721
12/27/2022 12:15:00 AM 6.0791 9.6022
12/27/2022 12:30:00 AM 6.0934 9.5458
12/27/2022 12:45:00 AM 6.0787 9.4928
12/27/2022 1:00:00 AM 6.0573 9.4728
12/27/2022 1:15:00 AM 6.0519 9.4359
12/27/2022 1:30:00 AM 6.049 9.5408
12/27/2022 1:45:00 AM 6.0545 9.3524
12/27/2022 2:00:00 AM 6.09 9.2946
12/27/2022 2:15:00 AM 6.0808 9.2112
12/27/2022 2:30:00 AM 6.0652 9.1698
12/27/2022 2:45:00 AM 6.0634 9.2
12/27/2022 3:00:00 AM 6.0604 9.5516
12/27/2022 3:15:00 AM 6.0981 9.2558
12/27/2022 3:30:00 AM 6.128 9.0112
12/27/2022 3:45:00 AM 6.1665 8.8512
12/27/2022 4:00:00 AM 6.1569 8.8344
12/27/2022 4:15:00 AM 6.0866 8.7669
12/27/2022 4:30:00 AM 6.0871 8.9087
12/27/2022 4:45:00 AM 6.072 8.7254
12/27/2022 5:00:00 AM 6.0549 8.7389
12/27/2022 5:15:00 AM 6.0816 8.6979
12/27/2022 5:30:00 AM 6.1132 8.5875
12/27/2022 5:45:00 AM 6.1166 8.6
12/27/2022 6:00:00 AM 6.1389 8.5991
12/27/2022 6:15:00 AM 6.1545 8.7009
12/27/2022 6:30:00 AM 6.1836 8.6049
12/27/2022 6:45:00 AM 6.1087 8.557
12/27/2022 7:00:00 AM 6.0679 8.6289
12/27/2022 7:15:00 AM 6.0467 8.5482
12/27/2022 7:30:00 AM 6.0392 8.5347
12/27/2022 7:45:00 AM 6.0379 8.4505
12/27/2022 8:00:00 AM 6.0365 8.467
12/27/2022 8:15:00 AM 6.038 8.6878
12/27/2022 8:30:00 AM 6.0387 8.6498
12/27/2022 8:45:00 AM 6.0396 8.7
12/27/2022 9:00:00 AM 6.0408 8.5307
12/27/2022 9:15:00 AM 6.0406 8.4504
12/27/2022 9:30:00 AM 6.0437 8.4904
12/27/2022 9:45:00 AM 6.0507 8.5377
12/27/2022 10:00:00 AM 6.0492 8.6411
12/27/2022 10:15:00 AM 6.061 8.7349
12/27/2022 10:30:00 AM 6.0571 8.8529
12/27/2022 10:45:00 AM 6.0553 8.9531
12/27/2022 11:00:00 AM 6.0475 9.0193
12/27/2022 11:15:00 AM 6.0497 9.0457
12/27/2022 11:30:00 AM 6.0546 9.1479
12/27/2022 11:45:00 AM 6.0452 9.2
12/27/2022 12:00:00 PM 6.0444 9.3488
12/27/2022 12:15:00 PM 6.0733 9.3919
12/27/2022 12:30:00 PM 6.0841 9.5457
12/27/2022 12:45:00 PM 6.0936 9.6997
12/27/2022 1:00:00 PM 6.0731 9.7761
12/27/2022 1:15:00 PM 6.0613 9.6573
12/27/2022 1:30:00 PM 6.0764 9.6299
12/27/2022 1:45:00 PM 6.093 10.093
12/27/2022 2:00:00 PM 6.0643 10.0291
12/27/2022 2:15:00 PM 6.0661 9.6323
12/27/2022 2:30:00 PM 6.0606 9.4168
12/27/2022 2:45:00 PM 6.0558 9.258
12/27/2022 3:00:00 PM 6.0631 9.2717
12/27/2022 3:15:00 PM 6.0753 9.2342
12/27/2022 3:30:00 PM 6.0908 9.0859
12/27/2022 3:45:00 PM 6.082 9.0357
12/27/2022 4:00:00 PM 6.058 9.0415
12/27/2022 4:15:00 PM 6.0542 8.8886
12/27/2022 4:30:00 PM 6.0707 8.8535
12/27/2022 4:45:00 PM 6.0686 8.741
12/27/2022 5:00:00 PM 6.0817 8.7478
12/27/2022 5:15:00 PM 6.0768 8.6328
12/27/2022 5:30:00 PM 6.0833 8.704
12/27/2022 5:45:00 PM 6.0928 8.7
12/27/2022 6:00:00 PM 6.0708 8.8278
12/27/2022 6:15:00 PM 6.0644 8.8167
12/27/2022 6:30:00 PM 6.0548 8.9066
12/27/2022 6:45:00 PM 6.0584 8.8955
12/27/2022 7:00:00 PM 6.0647 8.9673
12/27/2022 7:15:00 PM 6.0834 8.9491
12/27/2022 7:30:00 PM 6.1004 8.9886
12/27/2022 7:45:00 PM 6.0737 9.015
12/27/2022 8:00:00 PM 6.0743 9.0649
12/27/2022 8:15:00 PM 6.0922 8.9644
12/27/2022 8:30:00 PM 6.078 8.972
12/27/2022 8:45:00 PM 6.0816 8.9
12/27/2022 9:00:00 PM 6.1424 8.8387
12/27/2022 9:15:00 PM 6.1547 8.7523
12/27/2022 9:30:00 PM 6.1219 8.7044
12/27/2022 9:45:00 PM 6.1069 8.574
12/27/2022 10:00:00 PM 6.1205 8.552
12/27/2022 10:15:00 PM 6.157 8.46
12/27/2022 10:30:00 PM 6.1573 8.4011
12/27/2022 10:45:00 PM 6.137 8.3257
12/27/2022 11:00:00 PM 6.1428 8.2986
12/27/2022 11:15:00 PM 6.1663 8.2697
12/27/2022 11:30:00 PM 6.1719 8.4531
12/27/2022 11:45:00 PM 6.202 8.6
12/28/2022 12:00:00 AM 6.2133 8.5363
12/28/2022 12:15:00 AM 6.1771 8.2966
12/28/2022 12:30:00 AM 6.1638 8.3016
12/28/2022 12:45:00 AM 6.1793 8.2674
12/28/2022 1:00:00 AM 6.1691 8.3113
12/28/2022 1:15:00 AM 6.169 8.3436
12/28/2022 1:30:00 AM 6.1598 8.4001
12/28/2022 1:45:00 AM 6.1513 8.4349
12/28/2022 2:00:00 AM 6.1439 8.4607
12/28/2022 2:15:00 AM 6.2026 8.4632
12/28/2022 2:30:00 AM 6.2101 8.4997
12/28/2022 2:45:00 AM 6.2188 8.6
12/28/2022 3:00:00 AM 6.1634 8.57
12/28/2022 3:15:00 AM 6.162 8.633
12/28/2022 3:30:00 AM 6.1271 8.7598
12/28/2022 3:45:00 AM 6.1537 8.8756
12/28/2022 4:00:00 AM 6.1725 8.8712
12/28/2022 4:15:00 AM 6.1565 8.8183
12/28/2022 4:30:00 AM 6.1384 8.9001
12/28/2022 4:45:00 AM 6.1202 8.9824
12/28/2022 5:00:00 AM 6.1572 9.0562
12/28/2022 5:15:00 AM 6.1219 9.0883
12/28/2022 5:30:00 AM 6.1748 10.1711
12/28/2022 5:45:00 AM 6.2888 10.7
12/28/2022 6:00:00 AM 6.4229 9.9857
12/28/2022 6:15:00 AM 6.4692 9.5975
12/28/2022 6:30:00 AM 6.4854 9.6076
12/28/2022 6:45:00 AM 6.4709 9.5721
12/28/2022 7:00:00 AM 6.4582 9.6628
12/28/2022 7:15:00 AM 6.448 9.5495
12/28/2022 7:30:00 AM 6.4457 9.6058
12/28/2022 7:45:00 AM 6.4413 9.6281
12/28/2022 8:00:00 AM 6.4314 9.6512
12/28/2022 8:15:00 AM 6.4262 9.6424
12/28/2022 8:30:00 AM 6.4312 9.6603
12/28/2022 8:45:00 AM 6.433 9.7
12/28/2022 9:00:00 AM 6.4294 9.6653
12/28/2022 9:15:00 AM 6.417 9.6979
12/28/2022 9:30:00 AM 6.4155 9.7091
12/28/2022 9:45:00 AM 6.4088 9.8519
12/28/2022 10:00:00 AM 6.4066 9.9491
12/28/2022 10:15:00 AM 6.4107 9.9469
12/28/2022 10:30:00 AM 6.4125 9.9876
12/28/2022 10:45:00 AM 6.4207 10.0334
12/28/2022 11:00:00 AM 6.4209 10.1116
12/28/2022 11:15:00 AM 6.4115 10.1533
12/28/2022 11:30:00 AM 6.4029 10.2517
12/28/2022 11:45:00 AM 6.3938 10.3
12/28/2022 12:00:00 PM 6.4025 10.5202
12/28/2022 12:15:00 PM 6.3945 10.5424
12/28/2022 12:30:00 PM 6.3907 10.6783
12/28/2022 12:45:00 PM 6.3728 10.6718
12/28/2022 1:00:00 PM 6.3327 10.9228
12/28/2022 1:15:00 PM 6.3068 11.1072
12/28/2022 1:30:00 PM 6.2902 11.2348
12/28/2022 1:45:00 PM 6.2766 11.4937
12/28/2022 2:00:00 PM 6.2704 11.8466
12/28/2022 2:15:00 PM 6.2244 12.0837
12/28/2022 2:30:00 PM 6.128 12.5341
12/28/2022 2:45:00 PM 6.0719 13.1329
12/28/2022 3:00:00 PM 6.0377 13.6038
12/28/2022 3:15:00 PM 6.014 13.9529
12/28/2022 3:30:00 PM 6.0008 14.8599
12/28/2022 3:45:00 PM 5.9886 15.3998
12/28/2022 4:00:00 PM 5.9855 15.5897
12/28/2022 4:15:00 PM 5.9835 15.0197
12/28/2022 4:30:00 PM 5.9854 14.988
12/28/2022 4:45:00 PM 5.9858 14.6633
12/28/2022 5:00:00 PM 5.9857 14.3682
12/28/2022 5:15:00 PM 5.9868 13.9191
12/28/2022 5:30:00 PM 5.9862 13.6356
12/28/2022 5:45:00 PM 5.985 13.4
12/28/2022 6:00:00 PM 5.9872 12.8733
12/28/2022 6:15:00 PM 5.9908 12.4553
12/28/2022 6:30:00 PM 5.9907 12.1908
12/28/2022 6:45:00 PM 5.9933 11.7347
12/28/2022 7:00:00 PM 5.9921 11.4986
12/28/2022 7:15:00 PM 5.993 11.1837
12/28/2022 7:30:00 PM 5.9925 10.9169
12/28/2022 7:45:00 PM 5.9906 10.6993
12/28/2022 8:00:00 PM 5.9923 10.5449
12/28/2022 8:15:00 PM 6.002 10.1703
12/28/2022 8:30:00 PM 6.0248 10.2155
12/28/2022 8:45:00 PM 6.034 10.1
12/28/2022 9:00:00 PM 6.1568 9.896
12/28/2022 9:15:00 PM 6.2612 9.6276
12/28/2022 9:30:00 PM 6.3523 9.6237
12/28/2022 9:45:00 PM 6.3799 9.5667
12/28/2022 10:00:00 PM 6.352 9.5861
12/28/2022 10:15:00 PM 6.3466 9.4504
12/28/2022 10:30:00 PM 6.342 9.5709
12/28/2022 10:45:00 PM 6.3379 9.674
12/28/2022 11:00:00 PM 6.3243 9.6897
12/28/2022 11:15:00 PM 6.3039 9.7308
12/28/2022 11:30:00 PM 6.3028 9.8398
12/28/2022 11:45:00 PM 6.3042 9.9
12/29/2022 12:00:00 AM 6.3034 10.1166
12/29/2022 12:15:00 AM 6.2908 10.1959
12/29/2022 12:30:00 AM 6.2977 10.411
12/29/2022 12:45:00 AM 6.3055 10.501
12/29/2022 1:00:00 AM 6.3199 10.697
12/29/2022 1:15:00 AM 6.3291 10.7025
12/29/2022 1:30:00 AM 6.3259 10.8487
12/29/2022 1:45:00 AM 6.3207 11.1883
12/29/2022 2:00:00 AM 6.314 10.7645
12/29/2022 2:15:00 AM 6.3192 10.6207
12/29/2022 2:30:00 AM 6.1987 10.5142
12/29/2022 2:45:00 AM 6.132 10.5
12/29/2022 3:00:00 AM 6.0201 10.4811
12/29/2022 3:15:00 AM 6.0094 10.2123
12/29/2022 3:30:00 AM 6.0069 10.1952
12/29/2022 3:45:00 AM 6.0057 10.1278
12/29/2022 4:00:00 AM 6.0065 13.3418
12/29/2022 4:15:00 AM 6.0088 12.0785
12/29/2022 4:30:00 AM 6.01 11.2449
12/29/2022 4:45:00 AM 6.0104 10.9114
12/29/2022 5:00:00 AM 6.0103 10.5057
12/29/2022 5:15:00 AM 6.0128 10.2615
12/29/2022 5:30:00 AM 6.0127 10.1713
12/29/2022 5:45:00 AM 6.013 10
12/29/2022 6:00:00 AM 6.0147 9.7982
12/29/2022 6:15:00 AM 6.0147 10.8507
12/29/2022 6:30:00 AM 6.0151 10.3298
12/29/2022 6:45:00 AM 6.0159 9.4528
12/29/2022 7:00:00 AM 6.018 9.0539
12/29/2022 7:15:00 AM 6.0151 8.7694
12/29/2022 7:30:00 AM 6.0155 11.738
12/29/2022 7:45:00 AM 6.0151 9.4924
12/29/2022 8:00:00 AM 6.0153 8.3534
12/29/2022 8:15:00 AM 6.0172 8.1092
12/29/2022 8:30:00 AM 6.0166 8.026
12/29/2022 8:45:00 AM 6.0256 7.9
12/29/2022 9:00:00 AM 6.0749 7.8365
12/29/2022 9:15:00 AM 6.1497 7.6386
12/29/2022 9:30:00 AM 6.258 7.6108
12/29/2022 9:45:00 AM 6.3367 7.4886
12/29/2022 10:00:00 AM 6.3457 7.8572
12/29/2022 10:15:00 AM 6.3839 7.6875
12/29/2022 10:30:00 AM 6.3818 7.5413
12/29/2022 10:45:00 AM 6.3597 7.4348
12/29/2022 11:00:00 AM 6.3443 7.5593
12/29/2022 11:15:00 AM 6.3408 7.5126
12/29/2022 11:30:00 AM 6.371 7.5418
12/29/2022 11:45:00 AM 6.3742 7.5
12/29/2022 12:00:00 PM 6.4086 9.3827
12/29/2022 12:15:00 PM 6.3826 13.4051
12/29/2022 12:30:00 PM 6.3946 13.0665
12/29/2022 12:45:00 PM 6.4203 10.0087
12/29/2022 1:00:00 PM 6.4189 26.0697
12/29/2022 1:15:00 PM 6.3724 8.4783
12/29/2022 1:30:00 PM 6.3253 8.6264
12/29/2022 1:45:00 PM 6.1842 8.5081
12/29/2022 2:00:00 PM 6.0736 8.8174
12/29/2022 2:15:00 PM 6.0226 8.8304
12/29/2022 2:30:00 PM 6.0132 8.9814
12/29/2022 2:45:00 PM 6.0124 8.9545
12/29/2022 3:00:00 PM 6.0138 9.2075
12/29/2022 3:15:00 PM 6.0157 9.0979
12/29/2022 3:30:00 PM 6.0197 9.1953
12/29/2022 3:45:00 PM 6.0195 9.1353
12/29/2022 4:00:00 PM 6.0212 9.2288
12/29/2022 4:15:00 PM 6.0237 9.1397
12/29/2022 4:30:00 PM 6.0242 9.5162
12/29/2022 4:45:00 PM 6.0239 9.816
12/29/2022 5:00:00 PM 6.0246 9.5708
12/29/2022 5:15:00 PM 6.0247 9.3035
12/29/2022 5:30:00 PM 6.027 9.7572
12/29/2022 5:45:00 PM 6.0228 9.7
12/29/2022 6:00:00 PM 6.0249 9.5645
12/29/2022 6:15:00 PM 6.0289 9.5328
12/29/2022 6:30:00 PM 6.025 9.6274
12/29/2022 6:45:00 PM 6.025 9.4764
12/29/2022 7:00:00 PM 6.0366 9.5367
12/29/2022 7:15:00 PM 6.0385 9.4486
12/29/2022 7:30:00 PM 6.0343 9.5639
12/29/2022 7:45:00 PM 6.0338 9.3258
12/29/2022 8:00:00 PM 6.0309 9.5782
12/29/2022 8:15:00 PM 6.0293 9.3007
12/29/2022 8:30:00 PM 6.0293 9.2992
12/29/2022 8:45:00 PM 6.0298 9.1
12/29/2022 9:00:00 PM 6.0247 9.1598
12/29/2022 9:15:00 PM 6.0241 9.0201
12/29/2022 9:30:00 PM 6.0241 9.0744
12/29/2022 9:45:00 PM 6.0226 8.9175
12/29/2022 10:00:00 PM 6.0197 8.987
12/29/2022 10:15:00 PM 6.0206 8.8497
12/29/2022 10:30:00 PM 6.0196 8.8667
12/29/2022 10:45:00 PM 6.0186 10.6922
12/29/2022 11:00:00 PM 6.0194 10.2435
12/29/2022 11:15:00 PM 6.0198 9.3778
12/29/2022 11:30:00 PM 6.0196 9.3085
12/29/2022 11:45:00 PM 6.0214 9.2
12/30/2022 12:00:00 AM 6.0171 9.139
12/30/2022 12:15:00 AM 6.0164 9.1879
12/30/2022 12:30:00 AM 6.0151 9.1761
12/30/2022 12:45:00 AM 6.015 9.023
12/30/2022 1:00:00 AM 6.0149 9.0083
12/30/2022 1:15:00 AM 6.0148 8.7681
12/30/2022 1:30:00 AM 6.0148 8.9723
12/30/2022 1:45:00 AM 6.0147 8.8344
12/30/2022 2:00:00 AM 6.0148 8.892
12/30/2022 2:15:00 AM 6.015 8.7499
12/30/2022 2:30:00 AM 6.0146 8.7951
12/30/2022 2:45:00 AM 6.0158 8.8
12/30/2022 3:00:00 AM 6.0121 8.8243
12/30/2022 3:15:00 AM 6.0122 8.8215
12/30/2022 3:30:00 AM 6.0134 8.8157
12/30/2022 3:45:00 AM 6.0134 8.7293
12/30/2022 4:00:00 AM 6.013 8.8204
12/30/2022 4:15:00 AM 6.0141 8.7266
12/30/2022 4:30:00 AM 6.0137 8.8152
12/30/2022 4:45:00 AM 6.0138 8.7299
12/30/2022 5:00:00 AM 6.0121 8.9687
12/30/2022 5:15:00 AM 6.0122 8.6867
12/30/2022 5:30:00 AM 6.0098 8.8553
12/30/2022 5:45:00 AM 6.0102 8.8
12/30/2022 6:00:00 AM 6.0112 8.8697
12/30/2022 6:15:00 AM 6.0121 8.6337
12/30/2022 6:30:00 AM 6.0302 8.7676
12/30/2022 6:45:00 AM 6.0512 8.7818
12/30/2022 7:00:00 AM 6.0717 8.768
12/30/2022 7:15:00 AM 6.1057 8.5866
12/30/2022 7:30:00 AM 6.1379 9.0873
12/30/2022 7:45:00 AM 6.1938 8.9577
12/30/2022 8:00:00 AM 6.3124 8.9705
12/30/2022 8:15:00 AM 6.3492 9.0448
12/30/2022 8:30:00 AM 6.3565 8.8164
12/30/2022 8:45:00 AM 6.3532 8.8
12/30/2022 9:00:00 AM 6.3139 9.1142
12/30/2022 9:15:00 AM 6.1815 9.6249
12/30/2022 9:30:00 AM 6.0429 9.4191
12/30/2022 9:45:00 AM 6.0102 9.0786
12/30/2022 10:00:00 AM 6.0034 10.7523
12/30/2022 10:15:00 AM 6.0003 8.9814
12/30/2022 10:30:00 AM 6.0002 8.841
12/30/2022 10:45:00 AM 6.0002 8.7065
12/30/2022 11:00:00 AM 6.0015 8.8168
12/30/2022 11:15:00 AM 6.0033 8.9042
12/30/2022 11:30:00 AM 6.0047 9.0616
12/30/2022 11:45:00 AM 6.0046 8.9
12/30/2022 12:00:00 PM 6.0056 9.0325
12/30/2022 12:15:00 PM 6.005 9.0381
12/30/2022 12:30:00 PM 6.0052 9.302
12/30/2022 12:45:00 PM 6.005 9.5923
12/30/2022 1:00:00 PM 6.0051 10.1737
12/30/2022 1:15:00 PM 6.0045 10.7538
12/30/2022 1:30:00 PM 6.0007 11.9319
12/30/2022 1:45:00 PM 5.9999 13.0636
12/30/2022 2:00:00 PM 6.0002 14.3235
12/30/2022 2:15:00 PM 6 15.1464
12/30/2022 2:30:00 PM 5.9998 16.2324
12/30/2022 2:45:00 PM 5.9965 16.987
12/30/2022 3:00:00 PM 5.9953 18.0972
12/30/2022 3:15:00 PM 5.9953 17.2425
12/30/2022 3:30:00 PM 5.9934 9.3114
12/30/2022 3:45:00 PM 5.9913 10.831
12/30/2022 4:00:00 PM 5.9904 13.1978
12/30/2022 4:15:00 PM 5.9877 14.7877
12/30/2022 4:30:00 PM 5.9857 17.9113
12/30/2022 4:45:00 PM 5.9856 21.0565
12/30/2022 5:00:00 PM 5.9849 22.9506
12/30/2022 5:15:00 PM 5.9808 24.8939
12/30/2022 5:30:00 PM 5.9795 26.2549
12/30/2022 5:45:00 PM 5.9766 26.9
12/30/2022 6:00:00 PM 5.9752 27.9525
12/30/2022 6:15:00 PM 5.9716 28.2723
12/30/2022 6:30:00 PM 5.971 26.876
12/30/2022 6:45:00 PM 5.9675 25.015
12/30/2022 7:00:00 PM 5.9665 22.1703
12/30/2022 7:15:00 PM 5.9661 18.811
12/30/2022 7:30:00 PM 5.9665 17.0734
12/30/2022 7:45:00 PM 5.9663 15.1021
12/30/2022 8:00:00 PM 5.9669 14.1836
12/30/2022 8:15:00 PM 5.9629 12.3705
12/30/2022 8:30:00 PM 5.9621 10.4666
12/30/2022 8:45:00 PM 5.9598 9.6
12/30/2022 9:00:00 PM 5.9663 8.4411
12/30/2022 9:15:00 PM 5.9664 14.292
12/30/2022 9:30:00 PM 5.9666 18.6965
12/30/2022 9:45:00 PM 5.9664 18.617
12/30/2022 10:00:00 PM 5.9666 17.7089
12/30/2022 10:15:00 PM 5.9681 17.1878
12/30/2022 10:30:00 PM 5.9687 16.7886
12/30/2022 10:45:00 PM 5.9675 16.5235
12/30/2022 11:00:00 PM 5.9674 16.1963
12/30/2022 11:15:00 PM 5.9673 15.5498
12/30/2022 11:30:00 PM 5.9679 28.0602
12/30/2022 11:45:00 PM 5.9654 999.5748
12/31/2022 12:00:00 AM 5.9737 16.3495
12/31/2022 12:15:00 AM 5.9766 15.0362
12/31/2022 12:30:00 AM 5.9769 14.8002
12/31/2022 12:45:00 AM 5.979 14.6747
12/31/2022 1:00:00 AM 5.979 14.4466
12/31/2022 1:15:00 AM 5.9783 14.3449
12/31/2022 1:30:00 AM 5.978 14.5704
12/31/2022 1:45:00 AM 5.9782 14.4746
12/31/2022 2:00:00 AM 5.9796 14.3794
12/31/2022 2:15:00 AM 5.9786 14.2463
12/31/2022 2:30:00 AM 5.9784 14.2991
12/31/2022 2:45:00 AM 5.978 14.4
12/31/2022 3:00:00 AM 5.9782 14.2091
12/31/2022 3:15:00 AM 5.9788 13.9244
12/31/2022 3:30:00 AM 5.9806 13.7803
12/31/2022 3:45:00 AM 5.9801 13.7787
12/31/2022 4:00:00 AM 5.9884 13.5363
12/31/2022 4:15:00 AM 6.0363 13.3234
12/31/2022 4:30:00 AM 6.205 13.0508
12/31/2022 4:45:00 AM 6.3991 12.5382
12/31/2022 5:00:00 AM 6.4503 12.1095
12/31/2022 5:15:00 AM 6.4794 11.6917
12/31/2022 5:30:00 AM 6.4833 11.407
12/31/2022 5:45:00 AM 6.4904 11.3
12/31/2022 6:00:00 AM 6.4846 11.091
12/31/2022 6:15:00 AM 6.457 11.0473
12/31/2022 6:30:00 AM 6.3208 10.9054
12/31/2022 6:45:00 AM 6.1848 10.8403
12/31/2022 7:00:00 AM 6.0844 10.7707
12/31/2022 7:15:00 AM 6.0218 10.7052
12/31/2022 7:30:00 AM 6.0013 10.7462
12/31/2022 7:45:00 AM 5.9917 10.6186
12/31/2022 8:00:00 AM 5.9906 10.6688
12/31/2022 8:15:00 AM 5.9861 10.741
12/31/2022 8:30:00 AM 5.9857 10.8088
12/31/2022 8:45:00 AM 5.985 10.8
12/31/2022 9:00:00 AM 5.9859 11.0201
12/31/2022 9:15:00 AM 5.9862 10.9951
12/31/2022 9:30:00 AM 5.9857 11.6898
12/31/2022 9:45:00 AM 5.9877 12.5148
12/31/2022 10:00:00 AM 5.9882 11.7602
12/31/2022 10:15:00 AM 5.986 11.6506
12/31/2022 10:30:00 AM 5.9858 11.5965
12/31/2022 10:45:00 AM 5.9859 11.782
12/31/2022 11:00:00 AM 5.9858 12.7093
12/31/2022 11:15:00 AM 5.9857 12.8059
12/31/2022 11:30:00 AM 5.9857 13.3484
12/31/2022 11:45:00 AM 5.9864 13.4
12/31/2022 12:00:00 PM 5.9848 13.9
12/31/2022 12:15:00 PM 5.9856 14.2552
12/31/2022 12:30:00 PM 5.9844 14.9609
12/31/2022 12:45:00 PM 5.9845 15.7552
12/31/2022 1:00:00 PM 5.9818 16.547
12/31/2022 1:15:00 PM 5.9812 17.7388
12/31/2022 1:30:00 PM 5.9808 18.8163
12/31/2022 1:45:00 PM 5.9808 15.2933
12/31/2022 2:00:00 PM 5.9805 8.4929
12/31/2022 2:15:00 PM 5.9793 9.2483
12/31/2022 2:30:00 PM 5.9766 9.6173
12/31/2022 2:45:00 PM 5.9764 10.3346
12/31/2022 3:00:00 PM 5.976 11.1965
12/31/2022 3:15:00 PM 5.9762 12.2343
12/31/2022 3:30:00 PM 5.9761 12.6348
12/31/2022 3:45:00 PM 5.9762 12.9592
12/31/2022 4:00:00 PM 5.9759 12.8693
12/31/2022 4:15:00 PM 5.972 12.718
12/31/2022 4:30:00 PM 5.9713 12.8029
12/31/2022 4:45:00 PM 5.9712 13.7379
12/31/2022 5:00:00 PM 5.9715 13.6005
12/31/2022 5:15:00 PM 5.9713 13.2138
12/31/2022 5:30:00 PM 5.97 13.1709
12/31/2022 5:45:00 PM 5.9724 13.3
12/31/2022 6:00:00 PM 5.9672 12.5743
12/31/2022 6:15:00 PM 5.9664 12.0583
12/31/2022 6:30:00 PM 5.9667 12.1588
12/31/2022 6:45:00 PM 5.9663 12.4419
12/31/2022 7:00:00 PM 5.9664 12.0771
12/31/2022 7:15:00 PM 5.9667 11.6711
12/31/2022 7:30:00 PM 5.9697 11.6689
12/31/2022 7:45:00 PM 5.9714 12.4338
12/31/2022 8:00:00 PM 5.9712 13.4036
12/31/2022 8:15:00 PM 5.9687 14.5383
12/31/2022 8:30:00 PM 5.9671 15.4999
12/31/2022 8:45:00 PM 5.9668 15.6
12/31/2022 9:00:00 PM 5.9664 15.9595
12/31/2022 9:15:00 PM 5.9645 15.8692
12/31/2022 9:30:00 PM 5.9623 15.3394
12/31/2022 9:45:00 PM 5.9617 14.6998
12/31/2022 10:00:00 PM 5.9617 13.6399
12/31/2022 10:15:00 PM 5.9618 13.0836
12/31/2022 10:30:00 PM 5.9619 12.5498
12/31/2022 10:45:00 PM 5.962 12.22
12/31/2022 11:00:00 PM 5.9619 11.8157
12/31/2022 11:15:00 PM 5.9621 11.0658
12/31/2022 11:30:00 PM 5.9645 10.762
12/31/2022 11:45:00 PM 5.9682 10.7
1/1/2023 12:00:00 AM 5.9664 10.1553
1/1/2023 12:15:00 AM 5.9662 9.9509
1/1/2023 12:30:00 AM 5.9663 9.8207
1/1/2023 12:45:00 AM 5.9662 9.5038
1/1/2023 1:00:00 AM 5.9664 9.324
1/1/2023 1:15:00 AM 5.9663 9.8483
1/1/2023 1:30:00 AM 5.9665 10.2799
1/1/2023 1:45:00 AM 5.9663 10.5199
1/1/2023 2:00:00 AM 5.9664 10.6165
1/1/2023 2:15:00 AM 5.9653 10.6718
1/1/2023 2:30:00 AM 5.9657 10.4925
1/1/2023 2:45:00 AM 5.9668 10.4
1/1/2023 3:00:00 AM 5.9628 9.8994
1/1/2023 3:15:00 AM 5.9634 9.6079
1/1/2023 3:30:00 AM 5.9658 9.7071
1/1/2023 3:45:00 AM 5.9658 9.6081
1/1/2023 4:00:00 AM 5.9619 9.5315
1/1/2023 4:15:00 AM 5.9619 9.6577
1/1/2023 4:30:00 AM 5.9618 9.0207
1/1/2023 4:45:00 AM 5.9623 8.7699
1/1/2023 5:00:00 AM 5.9617 8.7806
1/1/2023 5:15:00 AM 5.9614 8.6741
1/1/2023 5:30:00 AM 5.9614 8.6021
1/1/2023 5:45:00 AM 5.9584 8.6
1/1/2023 6:00:00 AM 5.9612 8.2319
1/1/2023 6:15:00 AM 5.961 8.1717
1/1/2023 6:30:00 AM 5.9613 8.2552
1/1/2023 6:45:00 AM 5.9613 11.9654
1/1/2023 7:00:00 AM 5.9617 15.5934
1/1/2023 7:15:00 AM 5.9613 17.2774
1/1/2023 7:30:00 AM 5.9615 18.6586
1/1/2023 7:45:00 AM 5.9612 19.1909
1/1/2023 8:00:00 AM 5.9612 17.3699
1/1/2023 8:15:00 AM 5.961 19.2419
1/1/2023 8:30:00 AM 5.9616 19.1865
1/1/2023 8:45:00 AM 5.9626 18.8
1/1/2023 9:00:00 AM 5.9616 19.0947
1/1/2023 9:15:00 AM 5.9614 19.0624
1/1/2023 9:30:00 AM 5.9615 19.0153
1/1/2023 9:45:00 AM 5.9614 17.7599
1/1/2023 10:00:00 AM 5.9619 13.6359
1/1/2023 10:15:00 AM 5.9619 11.7581
1/1/2023 10:30:00 AM 5.9614 19.2113
1/1/2023 10:45:00 AM 5.9625 18.983
1/1/2023 11:00:00 AM 5.963 18.4784
1/1/2023 11:15:00 AM 5.9619 17.7571
1/1/2023 11:30:00 AM 5.9624 9.7152
1/1/2023 11:45:00 AM 5.9612 19.5
1/1/2023 12:00:00 PM 5.9621 18.1172
1/1/2023 12:15:00 PM 5.9622 18.4677
1/1/2023 12:30:00 PM 5.9617 18.4892
1/1/2023 12:45:00 PM 5.9616 18.1291
1/1/2023 1:00:00 PM 5.9613 17.7986
1/1/2023 1:15:00 PM 5.9617 17.6587
1/1/2023 1:30:00 PM 5.962 17.6327
1/1/2023 1:45:00 PM 5.9619 17.5287
1/1/2023 2:00:00 PM 5.9659 17.6177
1/1/2023 2:15:00 PM 5.9987 17.586
1/1/2023 2:30:00 PM 6.1477 17.3328
1/1/2023 2:45:00 PM 6.3693 16.9563
1/1/2023 3:00:00 PM 6.4465 16.5122
1/1/2023 3:15:00 PM 6.4787 16.308
1/1/2023 3:30:00 PM 6.4882 16.2156
1/1/2023 3:45:00 PM 6.4901 15.9049
1/1/2023 4:00:00 PM 6.4957 15.89
1/1/2023 4:15:00 PM 6.495 15.7864
1/1/2023 4:30:00 PM 6.4193 15.8039
1/1/2023 4:45:00 PM 6.297 15.9411
1/1/2023 5:00:00 PM 6.2022 16.4078
1/1/2023 5:15:00 PM 6.1353 16.6884
1/1/2023 5:30:00 PM 6.0757 17.3088
1/1/2023 5:45:00 PM 6.0452 17.5
1/1/2023 6:00:00 PM 6.0121 18.0843
1/1/2023 6:15:00 PM 6.002 18.6897
1/1/2023 6:30:00 PM 5.9944 18.7136
1/1/2023 6:45:00 PM 5.9902 18.7653
1/1/2023 7:00:00 PM 5.9897 18.8438
1/1/2023 7:15:00 PM 5.986 10.2224
1/1/2023 7:30:00 PM 5.9859 10.0388
1/1/2023 7:45:00 PM 5.9857 8.7058
1/1/2023 8:00:00 PM 5.9863 14.7766
1/1/2023 8:15:00 PM 5.9858 19.3506
1/1/2023 8:30:00 PM 5.9858 19.0836
1/1/2023 8:45:00 PM 5.985 19.3
1/1/2023 9:00:00 PM 5.9863 19.0478
1/1/2023 9:15:00 PM 5.9856 19.3936
1/1/2023 9:30:00 PM 5.9827 18.8373
1/1/2023 9:45:00 PM 5.9809 18.1933
1/1/2023 10:00:00 PM 5.981 15.947
1/1/2023 10:15:00 PM 5.9806 15.9367
1/1/2023 10:30:00 PM 5.9782 12.3478
1/1/2023 10:45:00 PM 5.9766 10.2346
1/1/2023 11:00:00 PM 5.9758 16.5876
1/1/2023 11:15:00 PM 5.9764 17.9248
1/1/2023 11:30:00 PM 5.976 16.941
1/1/2023 11:45:00 PM 5.978 18.8995
1/2/2023 12:00:00 AM 5.9759 17.5887
1/2/2023 12:15:00 AM 5.9743 18.742
1/2/2023 12:30:00 AM 5.9745 18.5297
1/2/2023 12:45:00 AM 5.975 19.0284
1/2/2023 1:00:00 AM 5.975 16.6253
1/2/2023 1:15:00 AM 5.9726 15.8492
1/2/2023 1:30:00 AM 5.9727 17.7294
1/2/2023 1:45:00 AM 5.971 18.2212
1/2/2023 2:00:00 AM 5.971 14.4693
1/2/2023 2:15:00 AM 5.9704 16.5291
1/2/2023 2:30:00 AM 5.9693 11.0662
1/2/2023 2:45:00 AM 5.9668 7.8999
1/2/2023 3:00:00 AM 5.9661 11.0823
1/2/2023 3:15:00 AM 5.966 8.7431
1/2/2023 3:30:00 AM 5.9624 9.3887
1/2/2023 3:45:00 AM 5.9607 8.2021
1/2/2023 4:00:00 AM 5.9606 8.3607
1/2/2023 4:15:00 AM 5.9574 13.8658
1/2/2023 4:30:00 AM 5.9564 18.9846
1/2/2023 4:45:00 AM 5.9566 19.2143
1/2/2023 5:00:00 AM 5.9538 18.9121
1/2/2023 5:15:00 AM 5.9518 18.8866
1/2/2023 5:30:00 AM 5.9515 19.1524
1/2/2023 5:45:00 AM 5.9528 19.3
1/2/2023 6:00:00 AM 5.947 19.1709
1/2/2023 6:15:00 AM 5.9466 19.4246
1/2/2023 6:30:00 AM 5.9445 19.1114
1/2/2023 6:45:00 AM 5.9423 19.1789
1/2/2023 7:00:00 AM 5.9421 19.0799
1/2/2023 7:15:00 AM 5.9422 15.0477
1/2/2023 7:30:00 AM 5.9422 8.4191
1/2/2023 7:45:00 AM 5.9425 18.3011
1/2/2023 8:00:00 AM 5.94 19.0907
1/2/2023 8:15:00 AM 5.9372 19.4042
1/2/2023 8:30:00 AM 5.9381 18.6012
1/2/2023 8:45:00 AM 5.9374 19.6
1/2/2023 9:00:00 AM 5.9374 18.9873
1/2/2023 9:15:00 AM 5.9377 19.2464
1/2/2023 9:30:00 AM 5.9374 19.0256
1/2/2023 9:45:00 AM 5.9369 19.1468
1/2/2023 10:00:00 AM 5.9376 18.7792
1/2/2023 10:15:00 AM 5.937 18.8674
1/2/2023 10:30:00 AM 5.9376 18.7527
1/2/2023 10:45:00 AM 5.9366 19.1514
1/2/2023 11:00:00 AM 5.9345 18.7743
1/2/2023 11:15:00 AM 5.9348 18.7592
1/2/2023 11:30:00 AM 5.9328 18.3616
1/2/2023 11:45:00 AM 5.9304 18.4
1/2/2023 12:00:00 PM 5.9332 18.3076
1/2/2023 12:15:00 PM 5.9327 18.2993
1/2/2023 12:30:00 PM 5.9323 18.2515
1/2/2023 12:45:00 PM 5.9327 18.5357
1/2/2023 1:00:00 PM 5.9329 18.217
1/2/2023 1:15:00 PM 5.9328 18.0415
1/2/2023 1:30:00 PM 5.9323 17.8933
1/2/2023 1:45:00 PM 5.9324 17.8372
1/2/2023 2:00:00 PM 5.9321 17.7646
1/2/2023 2:15:00 PM 5.9323 17.7754
1/2/2023 2:30:00 PM 5.9323 17.5905
1/2/2023 2:45:00 PM 5.9327 17.6266
1/2/2023 3:00:00 PM 5.9332 17.5671
1/2/2023 3:15:00 PM 5.9338 17.794
1/2/2023 3:30:00 PM 5.937 17.5292
1/2/2023 3:45:00 PM 5.9376 17.5691
1/2/2023 4:00:00 PM 5.9375 17.5893
1/2/2023 4:15:00 PM 5.9369 17.8011
1/2/2023 4:30:00 PM 5.9373 17.6819
1/2/2023 4:45:00 PM 5.9383 17.7579
1/2/2023 5:00:00 PM 5.9399 17.603
1/2/2023 5:15:00 PM 5.9387 17.7683
1/2/2023 5:30:00 PM 5.9416 17.9022
1/2/2023 5:45:00 PM 5.9388 17.9
1/2/2023 6:00:00 PM 5.9424 18.843
1/2/2023 6:15:00 PM 5.9424 18.2582
1/2/2023 6:30:00 PM 5.9373 17.2572
1/2/2023 6:45:00 PM 5.9244 16.8209
1/2/2023 7:00:00 PM 5.9211 16.8198
1/2/2023 7:15:00 PM 5.9192 17.1226
1/2/2023 7:30:00 PM 5.9176 17.2056
1/2/2023 7:45:00 PM 5.9178 17.5702
1/2/2023 8:00:00 PM 5.9164 18.4162
1/2/2023 8:15:00 PM 5.9174 18.3449
1/2/2023 8:30:00 PM 5.9168 18.179
1/2/2023 8:45:00 PM 5.9192 18.3
1/2/2023 9:00:00 PM 5.9212 27.6794
1/2/2023 9:15:00 PM 5.9203 18.049
1/2/2023 9:30:00 PM 5.923 17.7516
1/2/2023 9:45:00 PM 5.9232 17.7592
1/2/2023 10:00:00 PM 5.9234 17.418
1/2/2023 10:15:00 PM 5.9245 17.6024
1/2/2023 10:30:00 PM 5.9286 55.9476
1/2/2023 10:45:00 PM 5.9365 8.6916
1/2/2023 11:00:00 PM 5.9485 11.63
1/2/2023 11:15:00 PM 5.955 8.9582
1/2/2023 11:30:00 PM 5.9472 8.6843
1/2/2023 11:45:00 PM 5.9444 8.6
1/3/2023 12:00:00 AM 5.9428 8.2452
1/3/2023 12:15:00 AM 5.9431 8.107
1/3/2023 12:30:00 AM 5.9435 8.3151
1/3/2023 12:45:00 AM 5.9459 8.0911
1/3/2023 1:00:00 AM 5.9467 8.3534
1/3/2023 1:15:00 AM 5.9471 8.8676
1/3/2023 1:30:00 AM 5.9468 11.1603
1/3/2023 1:45:00 AM 5.947 9.7382
1/3/2023 2:00:00 AM 5.9469 8.6007
1/3/2023 2:15:00 AM 5.9467 8.2579
1/3/2023 2:30:00 AM 5.9486 8.3383
1/3/2023 2:45:00 AM 5.9528 8.4
1/3/2023 3:00:00 AM 5.9471 12.682
1/3/2023 3:15:00 AM 5.9481 10.0731
1/3/2023 3:30:00 AM 5.9483 18.7362
1/3/2023 3:45:00 AM 5.943 18.4282
1/3/2023 4:00:00 AM 5.9385 11.2281
1/3/2023 4:15:00 AM 5.9335 12.9606
1/3/2023 4:30:00 AM 5.9324 18.5974
1/3/2023 4:45:00 AM 5.9285 18.4129
1/3/2023 5:00:00 AM 5.9272 18.3302
1/3/2023 5:15:00 AM 5.9253 18.1567
1/3/2023 5:30:00 AM 5.9228 18.1224
1/3/2023 5:45:00 AM 5.9248 18.5
1/3/2023 6:00:00 AM 5.9188 17.856
1/3/2023 6:15:00 AM 5.9179 17.5586
1/3/2023 6:30:00 AM 5.9181 17.2655
1/3/2023 6:45:00 AM 5.9178 17.8195
1/3/2023 7:00:00 AM 5.9179 17.5488
1/3/2023 7:15:00 AM 5.9175 17.3967
1/3/2023 7:30:00 AM 5.9174 17.3055
1/3/2023 7:45:00 AM 5.9164 17.5438
1/3/2023 8:00:00 AM 5.9129 17.7056
1/3/2023 8:15:00 AM 5.9132 17.4811
1/3/2023 8:30:00 AM 5.9114 17.2955
1/3/2023 8:45:00 AM 5.908 17.3
1/3/2023 9:00:00 AM 5.9078 16.9494
1/3/2023 9:15:00 AM 5.9072 16.9259
1/3/2023 9:30:00 AM 5.9031 16.9887
1/3/2023 9:45:00 AM 5.903 16.9077
1/3/2023 10:00:00 AM 5.9032 17.1644
1/3/2023 10:15:00 AM 5.9001 15.7866
1/3/2023 10:30:00 AM 5.9055 18.1161
1/3/2023 10:45:00 AM 5.9063 17.4857
1/3/2023 11:00:00 AM 5.9146 18.1573
1/3/2023 11:15:00 AM 5.9512 14.6111
1/3/2023 11:30:00 AM 6.0824 16.2877
1/3/2023 11:45:00 AM 6.1992 19.2
1/3/2023 12:00:00 PM 6.307 27.2241
1/3/2023 12:15:00 PM 6.2571 50.069
1/3/2023 12:30:00 PM 6.2739 84.1321
1/3/2023 12:45:00 PM 6.3426 117.6494
1/3/2023 1:00:00 PM 6.3537 140.1705
1/3/2023 1:15:00 PM 6.2982 156.8034
1/3/2023 1:30:00 PM 6.2031 177.7249
1/3/2023 1:45:00 PM 6.1103 209.0942
1/3/2023 2:00:00 PM 6.0302 245.0559
1/3/2023 2:15:00 PM 5.9623 262.3167
1/3/2023 2:30:00 PM 5.9314 258.8581
1/3/2023 2:45:00 PM 5.9054 239.1259
1/3/2023 3:00:00 PM 5.8866 210.6758
1/3/2023 3:15:00 PM 5.8748 180.6346
1/3/2023 3:30:00 PM 5.8691 152.901
1/3/2023 3:45:00 PM 5.8659 129.7236
1/3/2023 4:00:00 PM 5.8642 108.7938
1/3/2023 4:15:00 PM 5.8642 90.0785
1/3/2023 4:30:00 PM 5.8639 73.547
1/3/2023 4:45:00 PM 5.8638 60.59
1/3/2023 5:00:00 PM 5.8645 54.4306
1/3/2023 5:15:00 PM 5.8595 42.3323
1/3/2023 5:30:00 PM 5.8506 38.0018
1/3/2023 5:45:00 PM 5.845 36
1/3/2023 6:00:00 PM 5.8376 33.3877
1/3/2023 6:15:00 PM 5.8346 31.5775
1/3/2023 6:30:00 PM 5.835 30.0537
1/3/2023 6:45:00 PM 5.8325 28.3698
1/3/2023 7:00:00 PM 5.8302 26.5308
1/3/2023 7:15:00 PM 5.8302 25.1393
1/3/2023 7:30:00 PM 5.8267 24.0057
1/3/2023 7:45:00 PM 5.8246 23.2736
1/3/2023 8:00:00 PM 5.8239 22.8085
1/3/2023 8:15:00 PM 5.8208 22.5696
1/3/2023 8:30:00 PM 5.8203 22.3421
1/3/2023 8:45:00 PM 5.8212 22.3
1/3/2023 9:00:00 PM 5.8156 23.1957
1/3/2023 9:15:00 PM 5.8159 23.1264
1/3/2023 9:30:00 PM 5.8154 22.5665
1/3/2023 9:45:00 PM 5.8136 21.9786
1/3/2023 10:00:00 PM 5.8112 21.2055
1/3/2023 10:15:00 PM 5.8108 20.6174
1/3/2023 10:30:00 PM 5.8091 22.8954
1/3/2023 10:45:00 PM 5.8103 19.7255
1/3/2023 11:00:00 PM 5.8104 18.9805
1/3/2023 11:15:00 PM 5.8103 18.1315
1/3/2023 11:30:00 PM 5.8108 17.4519
1/3/2023 11:45:00 PM 5.81 17
1/4/2023 12:00:00 AM 5.8147 16.0101
1/4/2023 12:15:00 AM 5.8128 15.3575
1/4/2023 12:30:00 AM 5.8135 14.7822
1/4/2023 12:45:00 AM 5.8108 14.2407
1/4/2023 1:00:00 AM 5.8132 19.2754
1/4/2023 1:15:00 AM 5.8113 15.0694
1/4/2023 1:30:00 AM 5.8147 14.0396
1/4/2023 1:45:00 AM 5.8145 13.3461
1/4/2023 2:00:00 AM 5.8151 12.9547
1/4/2023 2:15:00 AM 5.8152 12.3343
1/4/2023 2:30:00 AM 5.816 12.1504
1/4/2023 2:45:00 AM 5.817 12
1/4/2023 3:00:00 AM 5.8153 13.8901
1/4/2023 3:15:00 AM 5.8152 11.6894
1/4/2023 3:30:00 AM 5.8174 10.3893
1/4/2023 3:45:00 AM 5.8152 10.5536
1/4/2023 4:00:00 AM 5.8153 10.2584
1/4/2023 4:15:00 AM 5.815 10.2008
1/4/2023 4:30:00 AM 5.8143 9.4245
1/4/2023 4:45:00 AM 5.8122 8.5153
1/4/2023 5:00:00 AM 5.8129 8.2494
1/4/2023 5:15:00 AM 5.8127 8.8363
1/4/2023 5:30:00 AM 5.8134 9.6878
1/4/2023 5:45:00 AM 5.8114 9.3999
1/4/2023 6:00:00 AM 5.8139 8.0542
1/4/2023 6:15:00 AM 5.8142 7.6748
1/4/2023 6:30:00 AM 5.8139 7.4897
1/4/2023 6:45:00 AM 5.8118 7.3026
1/4/2023 7:00:00 AM 5.8122 7.9672
1/4/2023 7:15:00 AM 5.8111 9.8251
1/4/2023 7:30:00 AM 5.811 12.7888
1/4/2023 7:45:00 AM 5.8106 11.2157
1/4/2023 8:00:00 AM 5.8101 16.7838
1/4/2023 8:15:00 AM 5.8107 19.3213
1/4/2023 8:30:00 AM 5.8105 18.8888
1/4/2023 8:45:00 AM 5.81 18.8004
1/4/2023 9:00:00 AM 5.8103 19.4229
1/4/2023 9:15:00 AM 5.81 19.4324
1/4/2023 9:30:00 AM 5.8067 18.8992
1/4/2023 9:45:00 AM 5.8055 15.4724
1/4/2023 10:00:00 AM 5.806 8.2384
1/4/2023 10:15:00 AM 5.8056 8.4764
1/4/2023 10:30:00 AM 5.8103 8.1035
1/4/2023 10:45:00 AM 5.8218 8.921
1/4/2023 11:00:00 AM 5.8489 12.7408
1/4/2023 11:15:00 AM 5.9144 19.1204
1/4/2023 11:30:00 AM 5.9065 18.5756
1/4/2023 11:45:00 AM 5.8744 18.5
1/4/2023 12:00:00 PM 5.8372 18.7524
1/4/2023 12:15:00 PM 5.8268 18.6967
1/4/2023 12:30:00 PM 5.8203 18.5014
1/4/2023 12:45:00 PM 5.8168 18.4522
1/4/2023 1:00:00 PM 5.8151 18.1885
1/4/2023 1:15:00 PM 5.8153 18.0208
1/4/2023 1:30:00 PM 5.8119 17.8775
1/4/2023 1:45:00 PM 5.8102 17.8249
1/4/2023 2:00:00 PM 5.8061 17.7778
1/4/2023 2:15:00 PM 5.8057 17.7419
1/4/2023 2:30:00 PM 5.803 17.7726
1/4/2023 2:45:00 PM 5.8008 17.7341
1/4/2023 3:00:00 PM 5.8012 17.6991
1/4/2023 3:15:00 PM 5.8008 17.6512
1/4/2023 3:30:00 PM 5.7993 17.7077
1/4/2023 3:45:00 PM 5.7968 17.5849
1/4/2023 4:00:00 PM 5.7965 17.5708
1/4/2023 4:15:00 PM 5.7965 17.3428
1/4/2023 4:30:00 PM 5.8006 17.5555
1/4/2023 4:45:00 PM 5.8015 17.1534
1/4/2023 5:00:00 PM 5.8008 17.6719
1/4/2023 5:15:00 PM 5.8011 17.6316
1/4/2023 5:30:00 PM 5.8009 16.8782
1/4/2023 5:45:00 PM 5.8044 16.8
1/4/2023 6:00:00 PM 5.8007 16.7942
1/4/2023 6:15:00 PM 5.801 16.9095
1/4/2023 6:30:00 PM 5.797 16.9504
1/4/2023 6:45:00 PM 5.7961 16.9389
1/4/2023 7:00:00 PM 5.7962 16.9074
1/4/2023 7:15:00 PM 5.7944 17.0226
1/4/2023 7:30:00 PM 5.7924 17.4563
1/4/2023 7:45:00 PM 5.7916 17.4436
1/4/2023 8:00:00 PM 5.7914 17.6819
1/4/2023 8:15:00 PM 5.791 18.4755
1/4/2023 8:30:00 PM 5.7912 18.9789
1/4/2023 8:45:00 PM 5.7904 18.9001
1/4/2023 9:00:00 PM 5.7864 18.0065
1/4/2023 9:15:00 PM 5.7865 17.6812
1/4/2023 9:30:00 PM 5.7868 18.3016
1/4/2023 9:45:00 PM 5.7866 17.59
1/4/2023 10:00:00 PM 5.7867 17.2386
1/4/2023 10:15:00 PM 5.7865 16.946
1/4/2023 10:30:00 PM 5.7861 16.8165
1/4/2023 10:45:00 PM 5.7829 16.6152
1/4/2023 11:00:00 PM 5.782 16.6207
1/4/2023 11:15:00 PM 5.7813 16.6129
1/4/2023 11:30:00 PM 5.7818 17.8466
1/4/2023 11:45:00 PM 5.7834 19
1/5/2023 12:00:00 AM 5.7807 16.7153
1/5/2023 12:15:00 AM 5.7814 16.5287
1/5/2023 12:30:00 AM 5.7781 16.5907
1/5/2023 12:45:00 AM 5.7772 16.5905
1/5/2023 1:00:00 AM 5.7769 16.6274
1/5/2023 1:15:00 AM 5.7763 18.0833
1/5/2023 1:30:00 AM 5.7789 14.6099
1/5/2023 1:45:00 AM 5.7814 18.0499
1/5/2023 2:00:00 AM 5.7816 17.5953
1/5/2023 2:15:00 AM 5.7816 17.5351
1/5/2023 2:30:00 AM 5.7813 17.9823
1/5/2023 2:45:00 AM 5.7834 19.3
1/5/2023 3:00:00 AM 5.7769 17.4788
1/5/2023 3:15:00 AM 5.777 16.7853
1/5/2023 3:30:00 AM 5.7745 16.331
1/5/2023 3:45:00 AM 5.7746 16.0809
1/5/2023 4:00:00 AM 5.7731 16.1271
1/5/2023 4:15:00 AM 5.772 16.0638
1/5/2023 4:30:00 AM 5.7723 15.9021
1/5/2023 4:45:00 AM 5.7719 15.8713
1/5/2023 5:00:00 AM 5.7719 15.8634
1/5/2023 5:15:00 AM 5.7719 15.7444
1/5/2023 5:30:00 AM 5.772 15.861
1/5/2023 5:45:00 AM 5.7736 15.8
1/5/2023 6:00:00 AM 5.7719 15.7087
1/5/2023 6:15:00 AM 5.7722 15.5649
1/5/2023 6:30:00 AM 5.771 15.488
1/5/2023 6:45:00 AM 5.7679 15.6844
1/5/2023 7:00:00 AM 5.7684 15.4344
1/5/2023 7:15:00 AM 5.7686 15.3485
1/5/2023 7:30:00 AM 5.7696 15.4848
1/5/2023 7:45:00 AM 5.7758 20.3537
1/5/2023 8:00:00 AM 5.7768 16.1262
1/5/2023 8:15:00 AM 5.7766 15.5925
1/5/2023 8:30:00 AM 5.7765 15.3961
1/5/2023 8:45:00 AM 5.775 15.4
1/5/2023 9:00:00 AM 5.7798 15.1846
1/5/2023 9:15:00 AM 5.7815 15.4759
1/5/2023 9:30:00 AM 5.7806 15.1506
1/5/2023 9:45:00 AM 5.777 14.8095
1/5/2023 10:00:00 AM 5.7762 14.5999
1/5/2023 10:15:00 AM 5.7766 14.4838
1/5/2023 10:30:00 AM 5.7745 14.4442
1/5/2023 10:45:00 AM 5.7738 14.6848
1/5/2023 11:00:00 AM 5.7724 14.7011
1/5/2023 11:15:00 AM 5.7726 14.3193
1/5/2023 11:30:00 AM 5.7724 14.2334
1/5/2023 11:45:00 AM 5.7722 14.1
1/5/2023 12:00:00 PM 5.7759 13.7785
1/5/2023 12:15:00 PM 5.7693 14.7345
1/5/2023 12:30:00 PM 5.7753 13.7219
1/5/2023 12:45:00 PM 5.777 13.5922
1/5/2023 1:00:00 PM 5.7776 13.4589
1/5/2023 1:15:00 PM 5.7791 13.3338
1/5/2023 1:30:00 PM 5.7817 13.44
1/5/2023 1:45:00 PM 5.7816 13.4326
1/5/2023 2:00:00 PM 5.7819 13.3754
1/5/2023 2:15:00 PM 5.7822 13.4122
1/5/2023 2:30:00 PM 5.7839 13.3699
1/5/2023 2:45:00 PM 5.786 13.1964
1/5/2023 3:00:00 PM 5.7862 13.1512
1/5/2023 3:15:00 PM 5.7867 13.2983
1/5/2023 3:30:00 PM 5.7864 13.1216
1/5/2023 3:45:00 PM 5.7867 13.3618
1/5/2023 4:00:00 PM 5.7868 13.628
1/5/2023 4:15:00 PM 5.7871 13.4269
1/5/2023 4:30:00 PM 5.7899 13.7069
1/5/2023 4:45:00 PM 5.7908 13.5043
1/5/2023 5:00:00 PM 5.7908 13.2552
1/5/2023 5:15:00 PM 5.7913 13.3243
1/5/2023 5:30:00 PM 5.7915 13.2726
1/5/2023 5:45:00 PM 5.7918 13.4
1/5/2023 6:00:00 PM 5.7916 13.2848
1/5/2023 6:15:00 PM 5.7915 13.1209
1/5/2023 6:30:00 PM 5.7913 13.059
1/5/2023 6:45:00 PM 5.7915 13.1718
1/5/2023 7:00:00 PM 5.7916 13.0142
1/5/2023 7:15:00 PM 5.7911 13.0475
1/5/2023 7:30:00 PM 5.7931 13.0069
1/5/2023 7:45:00 PM 5.7934 13.1967
1/5/2023 8:00:00 PM 5.7964 13.0747
1/5/2023 8:15:00 PM 5.7964 13.0236
1/5/2023 8:30:00 PM 5.7958 12.9743
1/5/2023 8:45:00 PM 5.7974 13.8
1/5/2023 9:00:00 PM 5.7962 17.758
1/5/2023 9:15:00 PM 5.7963 17.9509
1/5/2023 9:30:00 PM 5.7963 17.3778
1/5/2023 9:45:00 PM 5.7962 17.0507
1/5/2023 10:00:00 PM 5.796 14.2065
1/5/2023 10:15:00 PM 5.7966 13.4757
1/5/2023 10:30:00 PM 5.7981 13.8916
1/5/2023 10:45:00 PM 5.8005 15.4217
1/5/2023 11:00:00 PM 5.8009 14.12
1/5/2023 11:15:00 PM 5.8005 15.6633
1/5/2023 11:30:00 PM 5.8009 18.1877
1/5/2023 11:45:00 PM 5.7988 18.4
1/6/2023 12:00:00 AM 5.8015 15.3613
1/6/2023 12:15:00 AM 5.8012 14.0298
1/6/2023 12:30:00 AM 5.8014 13.7931
1/6/2023 12:45:00 AM 5.8008 13.623
1/6/2023 1:00:00 AM 5.8007 14.1514
1/6/2023 1:15:00 AM 5.8007 14.4968
1/6/2023 1:30:00 AM 5.8013 13.9359
1/6/2023 1:45:00 AM 5.8011 13.5849
1/6/2023 2:00:00 AM 5.8007 13.4514
1/6/2023 2:15:00 AM 5.8001 13.3449
1/6/2023 2:30:00 AM 5.7997 13.6511
1/6/2023 2:45:00 AM 5.7974 13.9999
1/6/2023 3:00:00 AM 5.7965 18.312
1/6/2023 3:15:00 AM 5.7963 17.3081
1/6/2023 3:30:00 AM 5.7957 15.7801
1/6/2023 3:45:00 AM 5.7962 14.3013
1/6/2023 4:00:00 AM 5.7961 13.7887
1/6/2023 4:15:00 AM 5.7965 13.5661
1/6/2023 4:30:00 AM 5.7965 13.5445
1/6/2023 4:45:00 AM 5.7963 13.5116
1/6/2023 5:00:00 AM 5.7954 13.4596
1/6/2023 5:15:00 AM 5.7964 13.3365
1/6/2023 5:30:00 AM 5.7954 13.4021
1/6/2023 5:45:00 AM 5.7974 13.4
1/6/2023 6:00:00 AM 5.7929 13.1335
1/6/2023 6:15:00 AM 5.7996 13.2036
1/6/2023 6:30:00 AM 5.8041 13.2708
1/6/2023 6:45:00 AM 5.81 13.1436
1/6/2023 7:00:00 AM 5.8121 12.9322
1/6/2023 7:15:00 AM 5.8155 12.863
1/6/2023 7:30:00 AM 5.819 12.9984
1/6/2023 7:45:00 AM 5.8197 12.8389
1/6/2023 8:00:00 AM 5.8176 12.7969
1/6/2023 8:15:00 AM 5.8089 12.7095
1/6/2023 8:30:00 AM 5.8042 12.6641
1/6/2023 8:45:00 AM 5.8002 12.5
1/6/2023 9:00:00 AM 5.7965 12.6383
1/6/2023 9:15:00 AM 5.796 12.5654
1/6/2023 9:30:00 AM 5.7954 13.5076
1/6/2023 9:45:00 AM 5.7923 13.0612
1/6/2023 10:00:00 AM 5.7918 13.1464
1/6/2023 10:15:00 AM 5.7916 13.4773
1/6/2023 10:30:00 AM 5.7923 12.5664
1/6/2023 10:45:00 AM 5.7916 12.3764
1/6/2023 11:00:00 AM 5.7913 12.2342
1/6/2023 11:15:00 AM 5.7916 12.1684
1/6/2023 11:30:00 AM 5.7919 12.154
1/6/2023 11:45:00 AM 5.7932 12
1/6/2023 12:00:00 PM 5.7963 12.1088
1/6/2023 12:15:00 PM 5.7964 12.043
1/6/2023 12:30:00 PM 5.7969 12.0033
1/6/2023 12:45:00 PM 5.7965 12.3474
1/6/2023 1:00:00 PM 5.7964 13.3604
1/6/2023 1:15:00 PM 5.7965 16.2987
1/6/2023 1:30:00 PM 5.7976 12.6456
1/6/2023 1:45:00 PM 5.8014 12.0289
1/6/2023 2:00:00 PM 5.8012 11.9071
1/6/2023 2:15:00 PM 5.8012 11.8064
1/6/2023 2:30:00 PM 5.8008 11.7532
1/6/2023 2:45:00 PM 5.8013 11.9921
1/6/2023 3:00:00 PM 5.8025 12.1053
1/6/2023 3:15:00 PM 5.8042 12.1681
1/6/2023 3:30:00 PM 5.8057 12.1379
1/6/2023 3:45:00 PM 5.8055 12.0085
1/6/2023 4:00:00 PM 5.8059 12.1698
1/6/2023 4:15:00 PM 5.8118 12.032
1/6/2023 4:30:00 PM 5.8229 12.0466
1/6/2023 4:45:00 PM 5.8263 12.0863
1/6/2023 5:00:00 PM 5.8298 12.1112
1/6/2023 5:15:00 PM 5.8325 12.1408
1/6/2023 5:30:00 PM 5.8347 12.0989
1/6/2023 5:45:00 PM 5.8366 12
1/6/2023 6:00:00 PM 5.835 12.0643
1/6/2023 6:15:00 PM 5.835 12.0355
1/6/2023 6:30:00 PM 5.8368 12.0691
1/6/2023 6:45:00 PM 5.8401 11.951
1/6/2023 7:00:00 PM 5.8305 11.7773
1/6/2023 7:15:00 PM 5.8242 11.7501
1/6/2023 7:30:00 PM 5.8205 11.7545
1/6/2023 7:45:00 PM 5.8206 11.6818
1/6/2023 8:00:00 PM 5.8177 11.7123
1/6/2023 8:15:00 PM 5.8166 12.2136
1/6/2023 8:30:00 PM 5.8157 17.1021
1/6/2023 8:45:00 PM 5.8128 18.2
1/6/2023 9:00:00 PM 5.8158 7.8016
1/6/2023 9:15:00 PM 5.8158 17.228
1/6/2023 9:30:00 PM 5.8156 16.0068
1/6/2023 9:45:00 PM 5.8156 15.5133
1/6/2023 10:00:00 PM 5.8155 13.1864
1/6/2023 10:15:00 PM 5.8153 14.0524
1/6/2023 10:30:00 PM 5.8161 13.5819
1/6/2023 10:45:00 PM 5.8178 12.4798
1/6/2023 11:00:00 PM 5.8201 14.3947
1/6/2023 11:15:00 PM 5.8201 16.283
1/6/2023 11:30:00 PM 5.8193 14.0221
1/6/2023 11:45:00 PM 5.8184 13.2
1/7/2023 12:00:00 AM 5.8206 12.5873
1/7/2023 12:15:00 AM 5.8206 12.2137
1/7/2023 12:30:00 AM 5.8209 11.8825
1/7/2023 12:45:00 AM 5.8207 11.5831
1/7/2023 1:00:00 AM 5.8206 11.5272
1/7/2023 1:15:00 AM 5.8208 11.3815
1/7/2023 1:30:00 AM 5.8217 11.3572
1/7/2023 1:45:00 AM 5.8211 11.4582
1/7/2023 2:00:00 AM 5.8215 11.3612
1/7/2023 2:15:00 AM 5.823 11.334
1/7/2023 2:30:00 AM 5.8239 11.2736
1/7/2023 2:45:00 AM 5.8226 11.3
1/7/2023 3:00:00 AM 5.8254 11.1742
1/7/2023 3:15:00 AM 5.8252 11.1733
1/7/2023 3:30:00 AM 5.8256 11.092
1/7/2023 3:45:00 AM 5.8299 11.1731
1/7/2023 4:00:00 AM 5.8379 11.0201
1/7/2023 4:15:00 AM 5.8415 10.9336
1/7/2023 4:30:00 AM 5.8452 10.9181
1/7/2023 4:45:00 AM 5.8473 12.2735
1/7/2023 5:00:00 AM 5.8492 13.5177
1/7/2023 5:15:00 AM 5.85 12.0255
1/7/2023 5:30:00 AM 5.851 11.6134
1/7/2023 5:45:00 AM 5.852 11.6
1/7/2023 6:00:00 AM 5.8523 11.334
1/7/2023 6:15:00 AM 5.8549 12.7102
1/7/2023 6:30:00 AM 5.8574 13.8223
1/7/2023 6:45:00 AM 5.8606 15.6942
1/7/2023 7:00:00 AM 5.861 14.22
1/7/2023 7:15:00 AM 5.869 12.9387
1/7/2023 7:30:00 AM 5.8802 12.4916
1/7/2023 7:45:00 AM 5.8882 11.8029
1/7/2023 8:00:00 AM 5.8902 11.4135
1/7/2023 8:15:00 AM 5.8693 11.3799
1/7/2023 8:30:00 AM 5.8593 11.3413
1/7/2023 8:45:00 AM 5.8576 11.2
1/7/2023 9:00:00 AM 5.8509 12.6697
1/7/2023 9:15:00 AM 5.85 11.5947
1/7/2023 9:30:00 AM 5.8503 12.7868
1/7/2023 9:45:00 AM 5.85 11.2436
1/7/2023 10:00:00 AM 5.8501 10.8927
1/7/2023 10:15:00 AM 5.8496 10.6132
1/7/2023 10:30:00 AM 5.8494 10.5928
1/7/2023 10:45:00 AM 5.8501 10.5004
1/7/2023 11:00:00 AM 5.8501 10.4278
1/7/2023 11:15:00 AM 5.8497 10.3405
1/7/2023 11:30:00 AM 5.8496 10.3156
1/7/2023 11:45:00 AM 5.8506 10.3
1/7/2023 12:00:00 PM 5.8496 9.9491
1/7/2023 12:15:00 PM 5.8496 9.9504
1/7/2023 12:30:00 PM 5.8444 35.6257
1/7/2023 12:45:00 PM 5.8372 14.5597
1/7/2023 1:00:00 PM 5.8425 11.8759
1/7/2023 1:15:00 PM 5.8445 10.8668
1/7/2023 1:30:00 PM 5.8469 10.3854
1/7/2023 1:45:00 PM 5.8479 9.9927
1/7/2023 2:00:00 PM 5.8493 9.9074
1/7/2023 2:15:00 PM 5.8494 9.6956
1/7/2023 2:30:00 PM 5.8504 9.9166
1/7/2023 2:45:00 PM 5.8423 55.5291
1/7/2023 3:00:00 PM 5.8486 11.1211
1/7/2023 3:15:00 PM 5.8529 10.3728
1/7/2023 3:30:00 PM 5.8544 10.2661
1/7/2023 3:45:00 PM 5.8544 9.9878
1/7/2023 4:00:00 PM 5.8577 10.2735
1/7/2023 4:15:00 PM 5.8596 9.7543
1/7/2023 4:30:00 PM 5.8594 9.7598
1/7/2023 4:45:00 PM 5.8594 9.5282
1/7/2023 5:00:00 PM 5.8593 9.5928
1/7/2023 5:15:00 PM 5.8595 9.4683
1/7/2023 5:30:00 PM 5.8593 9.5601
1/7/2023 5:45:00 PM 5.8604 9.8
1/7/2023 6:00:00 PM 5.8596 9.7281
1/7/2023 6:15:00 PM 5.8595 9.5279
1/7/2023 6:30:00 PM 5.8597 9.6941
1/7/2023 6:45:00 PM 5.8593 9.6225
1/7/2023 7:00:00 PM 5.8593 9.7064
1/7/2023 7:15:00 PM 5.8594 9.6626
1/7/2023 7:30:00 PM 5.8592 10.2988
1/7/2023 7:45:00 PM 5.8597 10.3385
1/7/2023 8:00:00 PM 5.8598 9.9109
1/7/2023 8:15:00 PM 5.8596 16.652
1/7/2023 8:30:00 PM 5.8591 12.7377
1/7/2023 8:45:00 PM 5.8604 13.1
1/7/2023 9:00:00 PM 5.8596 13.1719
1/7/2023 9:15:00 PM 5.86 11.4031
1/7/2023 9:30:00 PM 5.86 10.6636
1/7/2023 9:45:00 PM 5.8606 10.432
1/7/2023 10:00:00 PM 5.8603 10.471
1/7/2023 10:15:00 PM 5.8609 10.2378
1/7/2023 10:30:00 PM 5.8675 10.3379
1/7/2023 10:45:00 PM 5.8739 10.1339
1/7/2023 11:00:00 PM 5.8846 10.0608
1/7/2023 11:15:00 PM 5.9 9.7814
1/7/2023 11:30:00 PM 5.9114 9.7002
1/7/2023 11:45:00 PM 5.9192 9.6
1/8/2023 12:00:00 AM 5.912 9.5859
1/8/2023 12:15:00 AM 5.915 9.5733
1/8/2023 12:30:00 AM 5.9182 9.7685
1/8/2023 12:45:00 AM 5.9185 10.4104
1/8/2023 1:00:00 AM 5.9099 11.0963
1/8/2023 1:15:00 AM 5.9128 11.3273
1/8/2023 1:30:00 AM 5.9251 11.7012
1/8/2023 1:45:00 AM 5.9186 11.1954
1/8/2023 2:00:00 AM 5.9037 11.0318
1/8/2023 2:15:00 AM 5.897 10.7719
1/8/2023 2:30:00 AM 5.8921 10.5374
1/8/2023 2:45:00 AM 5.8856 10.2999
1/8/2023 3:00:00 AM 5.8881 10.2852
1/8/2023 3:15:00 AM 5.8883 9.7249
1/8/2023 3:30:00 AM 5.8884 9.8017
1/8/2023 3:45:00 AM 5.8881 9.6399
1/8/2023 4:00:00 AM 5.8884 9.7173
1/8/2023 4:15:00 AM 5.8861 9.4379
1/8/2023 4:30:00 AM 5.8838 9.3816
1/8/2023 4:45:00 AM 5.8835 9.2633
1/8/2023 5:00:00 AM 5.8834 9.2767
1/8/2023 5:15:00 AM 5.8838 9.1399
1/8/2023 5:30:00 AM 5.8836 9.2221
1/8/2023 5:45:00 AM 5.8842 9.4
1/8/2023 6:00:00 AM 5.8807 11.6291
1/8/2023 6:15:00 AM 5.8806 11.2207
1/8/2023 6:30:00 AM 5.8797 9.9808
1/8/2023 6:45:00 AM 5.8791 9.9935
1/8/2023 7:00:00 AM 5.8786 9.9728
1/8/2023 7:15:00 AM 5.8787 9.736
1/8/2023 7:30:00 AM 5.8783 9.7352
1/8/2023 7:45:00 AM 5.8788 9.3538
1/8/2023 8:00:00 AM 5.8787 9.3636
1/8/2023 8:15:00 AM 5.8787 9.1437
1/8/2023 8:30:00 AM 5.8784 9.183
1/8/2023 8:45:00 AM 5.88 9.1
1/8/2023 9:00:00 AM 5.8787 9.1638
1/8/2023 9:15:00 AM 5.8769 9.0689
1/8/2023 9:30:00 AM 5.8776 9.0833
1/8/2023 9:45:00 AM 5.878 8.9161
1/8/2023 10:00:00 AM 5.8784 8.8989
1/8/2023 10:15:00 AM 5.8787 8.6996
1/8/2023 10:30:00 AM 5.8788 8.768
1/8/2023 10:45:00 AM 5.8786 8.6551
1/8/2023 11:00:00 AM 5.8786 8.6682
1/8/2023 11:15:00 AM 5.879 8.5442
1/8/2023 11:30:00 AM 5.8805 8.5828
1/8/2023 11:45:00 AM 5.8842 8.5
1/8/2023 12:00:00 PM 5.8837 9.0675
1/8/2023 12:15:00 PM 5.8838 8.8406
1/8/2023 12:30:00 PM 5.8854 8.6546
1/8/2023 12:45:00 PM 5.8866 8.4432
1/8/2023 1:00:00 PM 5.8867 8.6847
1/8/2023 1:15:00 PM 5.8882 8.6414
1/8/2023 1:30:00 PM 5.8878 9.1905
1/8/2023 1:45:00 PM 5.8878 9.4038
1/8/2023 2:00:00 PM 5.8884 10.067
1/8/2023 2:15:00 PM 5.8849 11.2578
1/8/2023 2:30:00 PM 5.8831 10.4276
1/8/2023 2:45:00 PM 5.8784 9.4836
1/8/2023 3:00:00 PM 5.8788 9.2689
1/8/2023 3:15:00 PM 5.879 9.0145
1/8/2023 3:30:00 PM 5.8785 8.8919
1/8/2023 3:45:00 PM 5.877 8.6851
1/8/2023 4:00:00 PM 5.8761 8.7084
1/8/2023 4:15:00 PM 5.8754 8.5419
1/8/2023 4:30:00 PM 5.8784 8.5927
1/8/2023 4:45:00 PM 5.8783 8.629
1/8/2023 5:00:00 PM 5.8789 8.8527
1/8/2023 5:15:00 PM 5.8788 8.7441
1/8/2023 5:30:00 PM 5.8787 9.2194
1/8/2023 5:45:00 PM 5.8786 9.9
1/8/2023 6:00:00 PM 5.8784 9.5008
1/8/2023 6:15:00 PM 5.8787 9.2809
1/8/2023 6:30:00 PM 5.8789 8.9123
1/8/2023 6:45:00 PM 5.8787 8.5189
1/8/2023 7:00:00 PM 5.8789 8.4321
1/8/2023 7:15:00 PM 5.8787 8.2859
1/8/2023 7:30:00 PM 5.8788 8.7498
1/8/2023 7:45:00 PM 5.8787 8.3585
1/8/2023 8:00:00 PM 5.8787 10.3223
1/8/2023 8:15:00 PM 5.8791 12.6163
1/8/2023 8:30:00 PM 5.8789 14.2144
1/8/2023 8:45:00 PM 5.88 14.4
1/8/2023 9:00:00 PM 5.8789 11.8716
1/8/2023 9:15:00 PM 5.879 11.1533
1/8/2023 9:30:00 PM 5.8786 10.5582
1/8/2023 9:45:00 PM 5.8786 11.2488
1/8/2023 10:00:00 PM 5.8789 12.485
1/8/2023 10:15:00 PM 5.8792 13.4605
1/8/2023 10:30:00 PM 5.8787 12.387
1/8/2023 10:45:00 PM 5.8772 14.1387
1/8/2023 11:00:00 PM 5.8789 12.4746
1/8/2023 11:15:00 PM 5.8793 10.8952
1/8/2023 11:30:00 PM 5.879 11.0477
1/8/2023 11:45:00 PM 5.8814 11.4
1/9/2023 12:00:00 AM 5.8791 11.8069
1/9/2023 12:15:00 AM 5.8793 12.1193
1/9/2023 12:30:00 AM 5.8796 11.2711
1/9/2023 12:45:00 AM 5.8794 10.5894
1/9/2023 1:00:00 AM 5.8805 9.9331
1/9/2023 1:15:00 AM 5.8823 9.3048
1/9/2023 1:30:00 AM 5.8913 9.7212
1/9/2023 1:45:00 AM 5.8984 9.567
1/9/2023 2:00:00 AM 5.8997 10.4164
1/9/2023 2:15:00 AM 5.9024 9.3374
1/9/2023 2:30:00 AM 5.9033 9.1337
1/9/2023 2:45:00 AM 5.9024 8.8
1/9/2023 3:00:00 AM 5.9033 8.7817
1/9/2023 3:15:00 AM 5.9032 12.078
1/9/2023 3:30:00 AM 5.9032 10.7855
1/9/2023 3:45:00 AM 5.9025 9.1764
1/9/2023 4:00:00 AM 5.9028 10.8339
1/9/2023 4:15:00 AM 5.903 11.48
1/9/2023 4:30:00 AM 5.9027 11.7241
1/9/2023 4:45:00 AM 5.9007 9.3928
1/9/2023 5:00:00 AM 5.8983 8.9404
1/9/2023 5:15:00 AM 5.8988 8.4549
1/9/2023 5:30:00 AM 5.8983 8.4805
1/9/2023 5:45:00 AM 5.8954 8.6
1/9/2023 6:00:00 AM 5.8999 8.5042
1/9/2023 6:15:00 AM 5.8999 8.1132
1/9/2023 6:30:00 AM 5.8993 8.3375
1/9/2023 6:45:00 AM 5.898 8.5554
1/9/2023 7:00:00 AM 5.8981 8.6465
1/9/2023 7:15:00 AM 5.898 9.7264
1/9/2023 7:30:00 AM 5.8965 12.6043
1/9/2023 7:45:00 AM 5.8933 11.5591
1/9/2023 8:00:00 AM 5.8933 9.7192
1/9/2023 8:15:00 AM 5.8931 8.7252
1/9/2023 8:30:00 AM 5.8894 23.0497
1/9/2023 8:45:00 AM 5.8898 10.5
1/9/2023 9:00:00 AM 5.8932 8.1649
1/9/2023 9:15:00 AM 5.8926 7.7745
1/9/2023 9:30:00 AM 5.8936 8.5863
1/9/2023 9:45:00 AM 5.8927 10.3848
1/9/2023 10:00:00 AM 5.8936 12.3058
1/9/2023 10:15:00 AM 5.8932 11.2926
1/9/2023 10:30:00 AM 5.8932 10.9909
1/9/2023 10:45:00 AM 5.8933 10.3234
1/9/2023 11:00:00 AM 5.8936 9.9898
1/9/2023 11:15:00 AM 5.8958 9.4527
1/9/2023 11:30:00 AM 5.8954 9.6687
1/9/2023 11:45:00 AM 5.8968 9.6
1/9/2023 12:00:00 PM 5.8974 9.0019
1/9/2023 12:15:00 PM 5.8977 8.3563
1/9/2023 12:30:00 PM 5.8978 8.2533
1/9/2023 12:45:00 PM 5.8982 7.9168
1/9/2023 1:00:00 PM 5.9 8.2228
1/9/2023 1:15:00 PM 5.9031 8.1615
1/9/2023 1:30:00 PM 5.9033 9.0018
1/9/2023 1:45:00 PM 5.903 8.4691
1/9/2023 2:00:00 PM 5.903 8.2263
1/9/2023 2:15:00 PM 5.9032 7.7482
1/9/2023 2:30:00 PM 5.9031 7.5319
1/9/2023 2:45:00 PM 5.9051 7.4982
1/9/2023 3:00:00 PM 5.9077 7.6787
1/9/2023 3:15:00 PM 5.9075 7.4645
1/9/2023 3:30:00 PM 5.9076 7.4476
1/9/2023 3:45:00 PM 5.9079 7.2428
1/9/2023 4:00:00 PM 5.9079 7.3785
1/9/2023 4:15:00 PM 5.9113 7.2171
1/9/2023 4:30:00 PM 5.9128 7.2417
1/9/2023 4:45:00 PM 5.9133 7.5802
1/9/2023 5:00:00 PM 5.9133 7.9065
1/9/2023 5:15:00 PM 5.9147 7.6399
1/9/2023 5:30:00 PM 5.917 7.4168
1/9/2023 5:45:00 PM 5.9192 7.2
1/9/2023 6:00:00 PM 5.9177 7.13
1/9/2023 6:15:00 PM 5.9178 6.9905
1/9/2023 6:30:00 PM 5.9178 7.0388
1/9/2023 6:45:00 PM 5.9177 6.9366
1/9/2023 7:00:00 PM 5.9177 7.0547
1/9/2023 7:15:00 PM 5.9178 7.0089
1/9/2023 7:30:00 PM 5.9176 7.1551
1/9/2023 7:45:00 PM 5.9179 7.029
1/9/2023 8:00:00 PM 5.9177 7.0651
1/9/2023 8:15:00 PM 5.9177 7.0115
1/9/2023 8:30:00 PM 5.9173 7.121
1/9/2023 8:45:00 PM 5.9136 7
1/9/2023 9:00:00 PM 5.9181 7.3958
1/9/2023 9:15:00 PM 5.9172 7.1824
1/9/2023 9:30:00 PM 5.9148 7.249
1/9/2023 9:45:00 PM 5.9122 7.0617
1/9/2023 10:00:00 PM 5.9074 7.4124
1/9/2023 10:15:00 PM 5.9032 7.3232
1/9/2023 10:30:00 PM 5.9017 7.4415
1/9/2023 10:45:00 PM 5.8983 7.3759
1/9/2023 11:00:00 PM 5.8978 9.2446
1/9/2023 11:15:00 PM 5.9006 21.9678
1/9/2023 11:30:00 PM 5.9021 10.2379
1/9/2023 11:45:00 PM 5.9052 10.4
1/10/2023 12:00:00 AM 5.9024 10.7966
1/10/2023 12:15:00 AM 5.9034 10.2003
1/10/2023 12:30:00 AM 5.9033 9.7079
1/10/2023 12:45:00 AM 5.9038 9.4114
1/10/2023 1:00:00 AM 5.9031 9.3616
1/10/2023 1:15:00 AM 5.9036 9.0675
1/10/2023 1:30:00 AM 5.9059 8.7616
1/10/2023 1:45:00 AM 5.9069 8.6271
1/10/2023 2:00:00 AM 5.9079 8.5181
1/10/2023 2:15:00 AM 5.9081 8.3893
1/10/2023 2:30:00 AM 5.9079 8.3715
1/10/2023 2:45:00 AM 5.908 8.4
1/10/2023 3:00:00 AM 5.9078 8.4531
1/10/2023 3:15:00 AM 5.9078 8.1359
1/10/2023 3:30:00 AM 5.9084 8.1719
1/10/2023 3:45:00 AM 5.909 8.1132
1/10/2023 4:00:00 AM 5.9106 8.3542
1/10/2023 4:15:00 AM 5.9132 8.5942
1/10/2023 4:30:00 AM 5.9129 8.2073
1/10/2023 4:45:00 AM 5.9131 7.8523
1/10/2023 5:00:00 AM 5.9132 7.7354
1/10/2023 5:15:00 AM 5.9135 7.9455
1/10/2023 5:30:00 AM 5.9135 7.9266
1/10/2023 5:45:00 AM 5.9122 7.7
1/10/2023 6:00:00 AM 5.9118 8.1313
1/10/2023 6:15:00 AM 5.9129 7.5649
1/10/2023 6:30:00 AM 5.9131 7.2578
1/10/2023 6:45:00 AM 5.9124 7.035
1/10/2023 7:00:00 AM 5.9125 6.8583
1/10/2023 7:15:00 AM 5.9127 6.9364
1/10/2023 7:30:00 AM 5.9124 7.161
1/10/2023 7:45:00 AM 5.9123 6.7627
1/10/2023 8:00:00 AM 5.9092 6.7936
1/10/2023 8:15:00 AM 5.9094 6.6921
1/10/2023 8:30:00 AM 5.909 6.5305
1/10/2023 8:45:00 AM 5.9094 6.5
1/10/2023 9:00:00 AM 5.9099 6.4134
1/10/2023 9:15:00 AM 5.908 6.3761
1/10/2023 9:30:00 AM 5.9085 6.3825
1/10/2023 9:45:00 AM 5.9108 6.5531
1/10/2023 10:00:00 AM 5.9121 6.5
1/10/2023 10:15:00 AM 5.9136 6.4405
1/10/2023 10:30:00 AM 5.9128 6.3402
1/10/2023 10:45:00 AM 5.9133 6.952
1/10/2023 11:00:00 AM 5.9132 6.9223
1/10/2023 11:15:00 AM 5.9132 6.8039
1/10/2023 11:30:00 AM 5.9129 6.8137
1/10/2023 11:45:00 AM 5.9136 6.8
1/10/2023 12:00:00 PM 5.913 6.7994
1/10/2023 12:15:00 PM 5.9144 6.7507
1/10/2023 12:30:00 PM 5.9175 6.7498
1/10/2023 12:45:00 PM 5.9197 6.5624
1/10/2023 1:00:00 PM 5.9335 6.5889
1/10/2023 1:15:00 PM 5.937 6.3882
1/10/2023 1:30:00 PM 5.9372 6.2641
1/10/2023 1:45:00 PM 5.9373 6.2176
1/10/2023 2:00:00 PM 5.9381 6.1757
1/10/2023 2:15:00 PM 5.9391 6.1314
1/10/2023 2:30:00 PM 5.9422 6.1366
1/10/2023 2:45:00 PM 5.9423 6.1558
1/10/2023 3:00:00 PM 5.9426 6.4941
1/10/2023 3:15:00 PM 5.9451 7.2849
1/10/2023 3:30:00 PM 5.9465 6.835
1/10/2023 3:45:00 PM 5.9467 6.383
1/10/2023 4:00:00 PM 5.9495 6.1711
1/10/2023 4:15:00 PM 5.9518 6.0314
1/10/2023 4:30:00 PM 5.9522 6.2189
1/10/2023 4:45:00 PM 5.9512 6.462
1/10/2023 5:00:00 PM 5.9513 6.8938
1/10/2023 5:15:00 PM 5.9513 6.9838
1/10/2023 5:30:00 PM 5.9514 6.9924
1/10/2023 5:45:00 PM 5.9528 7.2
1/10/2023 6:00:00 PM 5.9519 6.588
1/10/2023 6:15:00 PM 5.9513 6.3672
1/10/2023 6:30:00 PM 5.9514 6.2547
1/10/2023 6:45:00 PM 5.9513 6.1844
1/10/2023 7:00:00 PM 5.9488 6.3833
1/10/2023 7:15:00 PM 5.9475 6.4598
1/10/2023 7:30:00 PM 5.9473 6.3867
1/10/2023 7:45:00 PM 5.9486 6.7453
1/10/2023 8:00:00 PM 5.9494 8.1738
1/10/2023 8:15:00 PM 5.9479 7.304
1/10/2023 8:30:00 PM 5.9472 6.9581
1/10/2023 8:45:00 PM 5.9486 6.9
1/10/2023 9:00:00 PM 5.9494 6.4672
1/10/2023 9:15:00 PM 5.9492 6.6794
1/10/2023 9:30:00 PM 5.9514 7.4818
1/10/2023 9:45:00 PM 5.9496 7.3241
1/10/2023 10:00:00 PM 5.9506 6.9183
1/10/2023 10:15:00 PM 5.9516 6.9248
1/10/2023 10:30:00 PM 5.9516 6.7281
1/10/2023 10:45:00 PM 5.9519 7.2247
1/10/2023 11:00:00 PM 5.9514 9.1445
1/10/2023 11:15:00 PM 5.9521 9.2904
1/10/2023 11:30:00 PM 5.9519 8.7267
1/10/2023 11:45:00 PM 5.9528 8.4
1/11/2023 12:00:00 AM 5.9517 8.2426
1/11/2023 12:15:00 AM 5.9518 7.1886
1/11/2023 12:30:00 AM 5.9517 6.8214
1/11/2023 12:45:00 AM 5.9516 6.7355
1/11/2023 1:00:00 AM 5.9516 6.6316
1/11/2023 1:15:00 AM 5.9515 6.3693
1/11/2023 1:30:00 AM 5.952 6.2826
1/11/2023 1:45:00 AM 5.9515 6.1625
1/11/2023 2:00:00 AM 5.952 6.6068
1/11/2023 2:15:00 AM 5.9519 7.2694
1/11/2023 2:30:00 AM 5.9522 7.6396
1/11/2023 2:45:00 AM 5.95 8.8
1/11/2023 3:00:00 AM 5.9521 8.6274
1/11/2023 3:15:00 AM 5.9542 8.125
1/11/2023 3:30:00 AM 5.9565 7.4881
1/11/2023 3:45:00 AM 5.955 7.207
1/11/2023 4:00:00 AM 5.9558 7.1558
1/11/2023 4:15:00 AM 5.9514 7.0006
1/11/2023 4:30:00 AM 5.9515 7.0689
1/11/2023 4:45:00 AM 5.9518 6.807
1/11/2023 5:00:00 AM 5.9536 6.6812
1/11/2023 5:15:00 AM 5.9533 6.7787
1/11/2023 5:30:00 AM 5.9553 6.4931
1/11/2023 5:45:00 AM 5.9486 6.7
1/11/2023 6:00:00 AM 5.9574 9.9742
1/11/2023 6:15:00 AM 5.9594 9.9678
1/11/2023 6:30:00 AM 5.9564 8.8164
1/11/2023 6:45:00 AM 5.9556 8.0083
1/11/2023 7:00:00 AM 6.0011 7.473
1/11/2023 7:15:00 AM 6.1797 6.9573
1/11/2023 7:30:00 AM 6.3855 6.6012
1/11/2023 7:45:00 AM 6.4671 6.3902
1/11/2023 8:00:00 AM 6.4096 6.5001
1/11/2023 8:15:00 AM 6.1725 6.447
1/11/2023 8:30:00 AM 6.04 6.2576
1/11/2023 8:45:00 AM 6.0018 6.3
1/11/2023 9:00:00 AM 5.9576 6.1151
1/11/2023 9:15:00 AM 5.9516 7.0578
1/11/2023 9:30:00 AM 5.9491 8.2026
1/11/2023 9:45:00 AM 5.9472 8.3614
1/11/2023 10:00:00 AM 5.9465 7.2452
1/11/2023 10:15:00 AM 5.9467 7.6473
1/11/2023 10:30:00 AM 5.9473 6.8577
1/11/2023 10:45:00 AM 5.9476 6.4654
1/11/2023 11:00:00 AM 5.9472 6.2186
1/11/2023 11:15:00 AM 5.9483 6.0676
1/11/2023 11:30:00 AM 5.9504 5.9684
1/11/2023 11:45:00 AM 5.9528 6.1
1/11/2023 12:00:00 PM 5.9517 5.9204
1/11/2023 12:15:00 PM 5.9516 6.5192
1/11/2023 12:30:00 PM 5.9516 6.396
1/11/2023 12:45:00 PM 5.9516 6.5372
1/11/2023 1:00:00 PM 5.9515 6.4202
1/11/2023 1:15:00 PM 5.9516 6.2239
1/11/2023 1:30:00 PM 5.9517 6.2655
1/11/2023 1:45:00 PM 5.9521 6.1871
1/11/2023 2:00:00 PM 5.9522 6.1162
1/11/2023 2:15:00 PM 5.952 6.016
1/11/2023 2:30:00 PM 5.9555 5.9665
1/11/2023 2:45:00 PM 5.9567 5.912
1/11/2023 3:00:00 PM 5.9568 5.8622
1/11/2023 3:15:00 PM 5.9566 6.0505
1/11/2023 3:30:00 PM 5.9586 5.9493
1/11/2023 3:45:00 PM 5.9616 5.8259
1/11/2023 4:00:00 PM 5.9614 5.7344
1/11/2023 4:15:00 PM 5.9613 5.7196
1/11/2023 4:30:00 PM 5.9613 7.1593
1/11/2023 4:45:00 PM 5.9616 6.5627
1/11/2023 5:00:00 PM 5.9631 6.4263
1/11/2023 5:15:00 PM 5.9657 5.9508
1/11/2023 5:30:00 PM 5.9656 5.8512
1/11/2023 5:45:00 PM 5.9654 5.8
1/11/2023 6:00:00 PM 5.9659 5.6873
1/11/2023 6:15:00 PM 5.9658 5.6446
1/11/2023 6:30:00 PM 5.9654 5.5487
1/11/2023 6:45:00 PM 5.9618 5.6949
1/11/2023 7:00:00 PM 5.9639 6.2149
1/11/2023 7:15:00 PM 5.9643 6.3267
1/11/2023 7:30:00 PM 5.962 6.8518
1/11/2023 7:45:00 PM 5.9645 6.4455
1/11/2023 8:00:00 PM 5.963 6.3382
1/11/2023 8:15:00 PM 5.9622 6.1907
1/11/2023 8:30:00 PM 5.9634 6.1277
1/11/2023 8:45:00 PM 5.9668 6.1
1/11/2023 9:00:00 PM 5.9652 6.1903
1/11/2023 9:15:00 PM 5.9639 6.0856
1/11/2023 9:30:00 PM 5.9627 5.9061
1/11/2023 9:45:00 PM 5.9626 5.8733
1/11/2023 10:00:00 PM 5.9616 6.0716
1/11/2023 10:15:00 PM 5.9616 6.7122
1/11/2023 10:30:00 PM 5.9615 7.164
1/11/2023 10:45:00 PM 5.9614 8.1859
1/11/2023 11:00:00 PM 5.9615 6.7127
1/11/2023 11:15:00 PM 5.9615 6.2875
1/11/2023 11:30:00 PM 5.9611 6.0894
1/11/2023 11:45:00 PM 5.9626 6
1/12/2023 12:00:00 AM 5.9615 5.7597
1/12/2023 12:15:00 AM 5.9619 5.6669
1/12/2023 12:30:00 AM 5.9618 5.6462
1/12/2023 12:45:00 AM 5.9617 5.6575
1/12/2023 1:00:00 AM 5.9611 5.6063
1/12/2023 1:15:00 AM 5.9616 5.5944
1/12/2023 1:30:00 AM 5.9612 5.8405
1/12/2023 1:45:00 AM 5.9618 5.6963
1/12/2023 2:00:00 AM 5.9615 5.563
1/12/2023 2:15:00 AM 5.9614 5.6186
1/12/2023 2:30:00 AM 5.9614 5.5942
1/12/2023 2:45:00 AM 5.9612 5.5
1/12/2023 3:00:00 AM 5.9613 5.4826
1/12/2023 3:15:00 AM 5.9613 5.4343
1/12/2023 3:30:00 AM 5.9618 5.2409
1/12/2023 3:45:00 AM 5.9612 5.1399
1/12/2023 4:00:00 AM 5.9617 5.1556
1/12/2023 4:15:00 AM 5.9615 5.1241
1/12/2023 4:30:00 AM 5.9616 5.1296
1/12/2023 4:45:00 AM 5.9622 5.2116
1/12/2023 5:00:00 AM 5.9617 5.2598
1/12/2023 5:15:00 AM 5.9609 5.3159
1/12/2023 5:30:00 AM 5.9618 5.4334
1/12/2023 5:45:00 AM 5.9598 5.5
1/12/2023 6:00:00 AM 5.9613 5.2581
1/12/2023 6:15:00 AM 5.9616 5.1415
1/12/2023 6:30:00 AM 5.9614 5.1715
1/12/2023 6:45:00 AM 5.9615 5.2229
1/12/2023 7:00:00 AM 5.9618 5.2315
1/12/2023 7:15:00 AM 5.9614 5.2007
1/12/2023 7:30:00 AM 5.9632 5.1426
1/12/2023 7:45:00 AM 5.9817 5.1423
1/12/2023 8:00:00 AM 5.9938 5.1444
1/12/2023 8:15:00 AM 5.9896 5.1496
1/12/2023 8:30:00 AM 5.9902 6.0757
1/12/2023 8:45:00 AM 5.992 7.8
1/12/2023 9:00:00 AM 6.1822 6.7363
1/12/2023 9:15:00 AM 6.3491 6.2151
1/12/2023 9:30:00 AM 6.3395 5.7585
1/12/2023 9:45:00 AM 6.2398 5.5613
1/12/2023 10:00:00 AM 6.1855 5.5208
1/12/2023 10:15:00 AM 6.1525 5.3691
1/12/2023 10:30:00 AM 6.1332 5.3441
1/12/2023 10:45:00 AM 6.1101 5.5602
1/12/2023 11:00:00 AM 6.0942 6.4013
1/12/2023 11:15:00 AM 6.0715 5.5366
1/12/2023 11:30:00 AM 6.0641 5.4011
1/12/2023 11:45:00 AM 6.0634 5.3
1/12/2023 12:00:00 PM 6.0602 5.2895
1/12/2023 12:15:00 PM 6.0569 5.2378
1/12/2023 12:30:00 PM 6.0596 5.2411
1/12/2023 12:45:00 PM 6.0549 5.7185
1/12/2023 1:00:00 PM 6.0526 5.953
1/12/2023 1:15:00 PM 6.0498 5.7715
1/12/2023 1:30:00 PM 6.0482 6.0395
1/12/2023 1:45:00 PM 6.0904 5.6086
1/12/2023 2:00:00 PM 6.0818 5.3792
1/12/2023 2:15:00 PM 6.0674 5.239
1/12/2023 2:30:00 PM 6.0728 5.1483
1/12/2023 2:45:00 PM 6.0606 5.0567
1/12/2023 3:00:00 PM 6.0337 5.3488
1/12/2023 3:15:00 PM 6.0214 6.4656
1/12/2023 3:30:00 PM 6.0104 5.9958
1/12/2023 3:45:00 PM 6.0026 5.7805
1/12/2023 4:00:00 PM 5.9977 5.611
1/12/2023 4:15:00 PM 5.9958 5.4933
1/12/2023 4:30:00 PM 5.9937 5.4776
1/12/2023 4:45:00 PM 5.9903 5.441
1/12/2023 5:00:00 PM 5.9906 5.4416
1/12/2023 5:15:00 PM 5.989 5.5527
1/12/2023 5:30:00 PM 5.9867 5.9735
1/12/2023 5:45:00 PM 5.9864 6.8
1/12/2023 6:00:00 PM 5.9853 6.3044
1/12/2023 6:15:00 PM 5.9855 6.1007
1/12/2023 6:30:00 PM 5.9853 6.0592
1/12/2023 6:45:00 PM 5.9849 6.0479
1/12/2023 7:00:00 PM 5.9834 6.3412
1/12/2023 7:15:00 PM 5.9818 6.3514
1/12/2023 7:30:00 PM 5.9818 6.2961
1/12/2023 7:45:00 PM 5.9807 6.2982
1/12/2023 8:00:00 PM 5.9807 6.4986
1/12/2023 8:15:00 PM 5.9807 6.5708
1/12/2023 8:30:00 PM 5.9764 6.8928
1/12/2023 8:45:00 PM 5.9766 7
1/12/2023 9:00:00 PM 5.9759 6.7654
1/12/2023 9:15:00 PM 5.976 6.4939
1/12/2023 9:30:00 PM 5.9759 6.3908
1/12/2023 9:45:00 PM 5.9757 6.3158
1/12/2023 10:00:00 PM 5.9736 6.5299
1/12/2023 10:15:00 PM 5.9712 6.8223
1/12/2023 10:30:00 PM 5.971 7.258
1/12/2023 10:45:00 PM 5.9684 8.3614
1/12/2023 11:00:00 PM 5.9663 9.5418
1/12/2023 11:15:00 PM 5.9659 12.3327
1/12/2023 11:30:00 PM 5.9658 14.7474
1/12/2023 11:45:00 PM 5.964 15.9
1/13/2023 12:00:00 AM 5.9616 13.4841
1/13/2023 12:15:00 AM 5.9608 13.2232
1/13/2023 12:30:00 AM 5.9612 12.9658
1/13/2023 12:45:00 AM 5.961 13.2221
1/13/2023 1:00:00 AM 5.959 14.1682
1/13/2023 1:15:00 AM 5.957 12.612
1/13/2023 1:30:00 AM 5.9565 11.7931
1/13/2023 1:45:00 AM 5.957 10.7628
1/13/2023 2:00:00 AM 5.9564 11.088
1/13/2023 2:15:00 AM 5.9568 10.645
1/13/2023 2:30:00 AM 5.9553 9.8934
1/13/2023 2:45:00 AM 5.9514 9.8
1/13/2023 3:00:00 AM 5.952 9.4064
1/13/2023 3:15:00 AM 5.9505 9.1461
1/13/2023 3:30:00 AM 5.949 8.7436
1/13/2023 3:45:00 AM 5.9471 8.6472
1/13/2023 4:00:00 AM 5.9471 8.9796
1/13/2023 4:15:00 AM 5.9431 9.5959
1/13/2023 4:30:00 AM 5.9409 11.2112
1/13/2023 4:45:00 AM 5.9373 13.4218
1/13/2023 5:00:00 AM 5.9363 16.5026
1/13/2023 5:15:00 AM 5.9327 18.5352
1/13/2023 5:30:00 AM 5.9315 16.9109
1/13/2023 5:45:00 AM 5.929 9.2
1/13/2023 6:00:00 AM 5.9192 11.5643
1/13/2023 6:15:00 AM 5.9132 12.4124
1/13/2023 6:30:00 AM 5.9069 14.2729
1/13/2023 6:45:00 AM 5.902 18.3126
1/13/2023 7:00:00 AM 5.8972 26.473
1/13/2023 7:15:00 AM 5.8927 35.1902
1/13/2023 7:30:00 AM 5.8884 43.7884
1/13/2023 7:45:00 AM 5.8863 50.8049
1/13/2023 8:00:00 AM 5.8836 56.8291
1/13/2023 8:15:00 AM 5.8788 59.6784
1/13/2023 8:30:00 AM 5.8742 57.3587
1/13/2023 8:45:00 AM 5.8772 55.5
1/13/2023 9:00:00 AM 5.8696 46.463
1/13/2023 9:15:00 AM 5.8694 40.1621
1/13/2023 9:30:00 AM 5.8707 35.1894
1/13/2023 9:45:00 AM 5.8738 31.3185
1/13/2023 10:00:00 AM 5.8731 27.4554
1/13/2023 10:15:00 AM 5.8741 23.3854
1/13/2023 10:30:00 AM 5.8752 20.5259
1/13/2023 10:45:00 AM 5.8789 17.3917
1/13/2023 11:00:00 AM 5.8793 14.7527
1/13/2023 11:15:00 AM 5.8837 12.9908
1/13/2023 11:30:00 AM 5.8842 11.4253
1/13/2023 11:45:00 AM 5.8884 10.9
1/13/2023 12:00:00 PM 5.8883 8.9282
1/13/2023 12:15:00 PM 5.8901 7.8648
1/13/2023 12:30:00 PM 5.8935 9.5238
1/13/2023 12:45:00 PM 5.8942 18.9563
1/13/2023 1:00:00 PM 5.8971 18.1478
1/13/2023 1:15:00 PM 5.8981 17.963
1/13/2023 1:30:00 PM 5.901 17.3943
1/13/2023 1:45:00 PM 5.9028 16.836
1/13/2023 2:00:00 PM 5.9034 16.3422
1/13/2023 2:15:00 PM 5.9031 16.4168
1/13/2023 2:30:00 PM 5.9034 16.487
1/13/2023 2:45:00 PM 5.9045 16.3849
1/13/2023 3:00:00 PM 5.9058 16.2606
1/13/2023 3:15:00 PM 5.9073 16.2018
1/13/2023 3:30:00 PM 5.9048 16.0085
1/13/2023 3:45:00 PM 5.9047 15.8469
1/13/2023 4:00:00 PM 5.9071 15.8057
1/13/2023 4:15:00 PM 5.906 15.647
1/13/2023 4:30:00 PM 5.9062 15.4636
1/13/2023 4:45:00 PM 5.9039 15.199
1/13/2023 5:00:00 PM 5.9033 14.9907
1/13/2023 5:15:00 PM 5.9034 14.6263
1/13/2023 5:30:00 PM 5.9031 14.2499
1/13/2023 5:45:00 PM 5.9038 14.0999
1/13/2023 6:00:00 PM 5.9034 13.8528
1/13/2023 6:15:00 PM 5.9042 13.7275
1/13/2023 6:30:00 PM 5.9051 13.2951
1/13/2023 6:45:00 PM 5.9067 12.8533
1/13/2023 7:00:00 PM 5.9076 12.4182
1/13/2023 7:15:00 PM 5.908 12.1733
1/13/2023 7:30:00 PM 5.908 12.1078
1/13/2023 7:45:00 PM 5.9078 12.2238
1/13/2023 8:00:00 PM 5.9092 13.8788
1/13/2023 8:15:00 PM 5.9132 18.1539
1/13/2023 8:30:00 PM 5.913 18.1654
1/13/2023 8:45:00 PM 5.9122 15.7
1/13/2023 9:00:00 PM 5.9177 12.3622
1/13/2023 9:15:00 PM 5.9177 11.559
1/13/2023 9:30:00 PM 5.9182 11.5369
1/13/2023 9:45:00 PM 5.9224 10.9478
1/13/2023 10:00:00 PM 5.923 10.593
1/13/2023 10:15:00 PM 5.924 10.3893
1/13/2023 10:30:00 PM 5.9276 10.2809
1/13/2023 10:45:00 PM 5.9276 10.1102
1/13/2023 11:00:00 PM 5.9298 9.9493
1/13/2023 11:15:00 PM 5.932 9.9468
1/13/2023 11:30:00 PM 5.9327 9.8703
1/13/2023 11:45:00 PM 5.9346 9.9
1/14/2023 12:00:00 AM 5.9379 10.3159
1/14/2023 12:15:00 AM 5.94 10.5101
1/14/2023 12:30:00 AM 5.9427 10.1368
1/14/2023 12:45:00 AM 5.9429 9.9121
1/14/2023 1:00:00 AM 5.9451 9.785
1/14/2023 1:15:00 AM 5.947 9.6332
1/14/2023 1:30:00 AM 5.9471 9.3369
1/14/2023 1:45:00 AM 5.9489 9.1532
1/14/2023 2:00:00 AM 5.9521 9.0256
1/14/2023 2:15:00 AM 5.9519 8.9442
1/14/2023 2:30:00 AM 5.9524 8.9542
1/14/2023 2:45:00 AM 5.9514 9
1/14/2023 3:00:00 AM 5.9565 8.9112
1/14/2023 3:15:00 AM 5.9568 8.8457
1/14/2023 3:30:00 AM 5.9574 8.981
1/14/2023 3:45:00 AM 5.9614 8.9414
1/14/2023 4:00:00 AM 5.9619 8.8951
1/14/2023 4:15:00 AM 5.9623 8.9323
1/14/2023 4:30:00 AM 5.9635 9.0982
1/14/2023 4:45:00 AM 5.9663 9.3663
1/14/2023 5:00:00 AM 5.9663 9.9082
1/14/2023 5:15:00 AM 5.9671 10.7017
1/14/2023 5:30:00 AM 5.9667 10.8006
1/14/2023 5:45:00 AM 5.964 10.7
1/14/2023 6:00:00 AM 5.971 10.5784
1/14/2023 6:15:00 AM 5.9703 10.5045
1/14/2023 6:30:00 AM 5.9694 14.1689
1/14/2023 6:45:00 AM 5.9694 13.1117
1/14/2023 7:00:00 AM 5.9712 11.0574
1/14/2023 7:15:00 AM 5.9714 10.8192
1/14/2023 7:30:00 AM 5.9712 11.0257
1/14/2023 7:45:00 AM 5.9707 11.2444
1/14/2023 8:00:00 AM 5.9713 11.2864
1/14/2023 8:15:00 AM 5.9712 11.6787
1/14/2023 8:30:00 AM 5.9715 11.9841
1/14/2023 8:45:00 AM 5.9696 11.7
1/14/2023 9:00:00 AM 5.9715 11.8326
1/14/2023 9:15:00 AM 5.9709 11.6062
1/14/2023 9:30:00 AM 5.9718 11.4059
1/14/2023 9:45:00 AM 5.971 11.2075
1/14/2023 10:00:00 AM 5.9739 11.0705
1/14/2023 10:15:00 AM 5.9759 10.7829
1/14/2023 10:30:00 AM 5.9764 10.7443
1/14/2023 10:45:00 AM 5.9762 10.6324
1/14/2023 11:00:00 AM 5.9761 10.6786
1/14/2023 11:15:00 AM 5.9765 10.7193
1/14/2023 11:30:00 AM 5.9804 10.721
1/14/2023 11:45:00 AM 5.9836 10.6
1/14/2023 12:00:00 PM 5.9812 10.7294
1/14/2023 12:15:00 PM 5.9808 10.7909
1/14/2023 12:30:00 PM 5.9814 10.8212
1/14/2023 12:45:00 PM 5.981 10.847
1/14/2023 1:00:00 PM 5.981 10.9461
1/14/2023 1:15:00 PM 5.9811 10.9128
1/14/2023 1:30:00 PM 5.9809 10.9357
1/14/2023 1:45:00 PM 5.9812 11.012
1/14/2023 2:00:00 PM 5.9813 11.0244
1/14/2023 2:15:00 PM 5.982 10.9369
1/14/2023 2:30:00 PM 5.9815 10.8381
1/14/2023 2:45:00 PM 5.9811 18.7765
1/14/2023 3:00:00 PM 5.9812 12.559
1/14/2023 3:15:00 PM 5.9816 11.8761
1/14/2023 3:30:00 PM 5.9824 11.783
1/14/2023 3:45:00 PM 5.9836 11.7663
1/14/2023 4:00:00 PM 5.9854 11.797
1/14/2023 4:15:00 PM 5.9861 11.7884
1/14/2023 4:30:00 PM 5.9859 11.9537
1/14/2023 4:45:00 PM 5.986 11.8922
1/14/2023 5:00:00 PM 5.9861 12.2252
1/14/2023 5:15:00 PM 5.9861 12.0175
1/14/2023 5:30:00 PM 5.9863 11.8873
1/14/2023 5:45:00 PM 5.9864 11.8
1/14/2023 6:00:00 PM 5.9857 11.874
1/14/2023 6:15:00 PM 5.984 11.8241
1/14/2023 6:30:00 PM 5.9816 11.7493
1/14/2023 6:45:00 PM 5.9808 11.6349
1/14/2023 7:00:00 PM 5.9811 11.6001
1/14/2023 7:15:00 PM 5.9808 11.449
1/14/2023 7:30:00 PM 5.9809 11.5294
1/14/2023 7:45:00 PM 5.987 11.5469
1/14/2023 8:00:00 PM 5.998 11.5833
1/14/2023 8:15:00 PM 6.0034 11.5302
1/14/2023 8:30:00 PM 6.0031 11.5997
1/14/2023 8:45:00 PM 6.0032 11.6
1/14/2023 9:00:00 PM 6.147 11.5698
1/14/2023 9:15:00 PM 6.1559 11.5521
1/14/2023 9:30:00 PM 6.1039 11.7234
1/14/2023 9:45:00 PM 6.0968 11.6889
1/14/2023 10:00:00 PM 6.097 11.7172
1/14/2023 10:15:00 PM 6.0786 11.7935
1/14/2023 10:30:00 PM 6.2193 11.7715
1/14/2023 10:45:00 PM 6.4846 11.4501
1/14/2023 11:00:00 PM 6.5432 11.2579
1/14/2023 11:15:00 PM 6.5683 10.9843
1/14/2023 11:30:00 PM 6.51 10.9215
1/14/2023 11:45:00 PM 6.4568 10.8
1/15/2023 12:00:00 AM 6.353 11.0051
1/15/2023 12:15:00 AM 6.3016 10.9657
1/15/2023 12:30:00 AM 6.2596 11.0078
1/15/2023 12:45:00 AM 6.2313 12.2023
1/15/2023 1:00:00 AM 6.2046 11.0868
1/15/2023 1:15:00 AM 6.1921 11.0452
1/15/2023 1:30:00 AM 6.1811 11.1212
1/15/2023 1:45:00 AM 6.2536 10.9647
1/15/2023 2:00:00 AM 6.4082 10.9195
1/15/2023 2:15:00 AM 6.4948 10.6743
1/15/2023 2:30:00 AM 6.517 10.5867
1/15/2023 2:45:00 AM 6.5156 10.6
1/15/2023 3:00:00 AM 6.4211 10.3219
1/15/2023 3:15:00 AM 6.3389 10.2369
1/15/2023 3:30:00 AM 6.2651 10.3111
1/15/2023 3:45:00 AM 6.2096 10.3034
1/15/2023 4:00:00 AM 6.181 10.5045
1/15/2023 4:15:00 AM 6.1679 11.1456
1/15/2023 4:30:00 AM 6.1553 11.0459
1/15/2023 4:45:00 AM 6.1439 11.0657
1/15/2023 5:00:00 AM 6.2133 11.1162
1/15/2023 5:15:00 AM 6.3552 10.9952
1/15/2023 5:30:00 AM 6.4372 11.3745
1/15/2023 5:45:00 AM 6.4512 11.2
1/15/2023 6:00:00 AM 6.3041 11.1775
1/15/2023 6:15:00 AM 6.2104 11.096
1/15/2023 6:30:00 AM 6.1489 11.1465
1/15/2023 6:45:00 AM 6.1257 11.1684
1/15/2023 7:00:00 AM 6.1191 11.3442
1/15/2023 7:15:00 AM 6.1727 11.3203
1/15/2023 7:30:00 AM 6.3317 11.4242
1/15/2023 7:45:00 AM 6.4294 11.4457
1/15/2023 8:00:00 AM 6.4308 11.573
1/15/2023 8:15:00 AM 6.2925 11.6199
1/15/2023 8:30:00 AM 6.182 11.716
1/15/2023 8:45:00 AM 6.1418 11.7
1/15/2023 9:00:00 AM 6.108 11.9494
1/15/2023 9:15:00 AM 6.1005 12.0062
1/15/2023 9:30:00 AM 6.1226 12.0939
1/15/2023 9:45:00 AM 6.2651 11.9614
1/15/2023 10:00:00 AM 6.3019 12.1008
1/15/2023 10:15:00 AM 6.1574 12.0792
1/15/2023 10:30:00 AM 6.1204 12.1187
1/15/2023 10:45:00 AM 6.1058 12.151
1/15/2023 11:00:00 AM 6.0976 12.2017
1/15/2023 11:15:00 AM 6.0933 12.1478
1/15/2023 11:30:00 AM 6.0916 12.1011
1/15/2023 11:45:00 AM 6.0886 12
1/15/2023 12:00:00 PM 6.2806 12.0439
1/15/2023 12:15:00 PM 6.3931 12.109
1/15/2023 12:30:00 PM 6.2445 12.41
1/15/2023 12:45:00 PM 6.1315 12.4335
1/15/2023 1:00:00 PM 6.1011 12.4956
1/15/2023 1:15:00 PM 6.0924 12.5734
1/15/2023 1:30:00 PM 6.0916 12.7838
1/15/2023 1:45:00 PM 6.0866 12.9248
1/15/2023 2:00:00 PM 6.0842 13.1387
1/15/2023 2:15:00 PM 6.0817 13.1985
1/15/2023 2:30:00 PM 6.0804 13.2053
1/15/2023 2:45:00 PM 6.0792 13.114
1/15/2023 3:00:00 PM 6.0799 13.1196
1/15/2023 3:15:00 PM 6.0771 12.7891
1/15/2023 3:30:00 PM 6.0761 12.5926
1/15/2023 3:45:00 PM 6.0729 12.3872
1/15/2023 4:00:00 PM 6.0758 12.3341
1/15/2023 4:15:00 PM 6.1807 12.1696
1/15/2023 4:30:00 PM 6.3625 12.1061
1/15/2023 4:45:00 PM 6.3328 11.999
1/15/2023 5:00:00 PM 6.1827 11.9969
1/15/2023 5:15:00 PM 6.1031 12.0559
1/15/2023 5:30:00 PM 6.0767 12.4079
1/15/2023 5:45:00 PM 6.0718 12.4
1/15/2023 6:00:00 PM 6.0628 12.3836
1/15/2023 6:15:00 PM 6.0618 12.4144
1/15/2023 6:30:00 PM 6.0622 12.4887
1/15/2023 6:45:00 PM 6.0622 12.3949
1/15/2023 7:00:00 PM 6.0642 12.3851
1/15/2023 7:15:00 PM 6.1365 12.1642
1/15/2023 7:30:00 PM 6.3248 12.1408
1/15/2023 7:45:00 PM 6.2965 12.0275
1/15/2023 8:00:00 PM 6.127 12.1696
1/15/2023 8:15:00 PM 6.0788 12.0501
1/15/2023 8:30:00 PM 6.0661 12.2295
1/15/2023 8:45:00 PM 6.062 12.2
1/15/2023 9:00:00 PM 6.0579 12.1745
1/15/2023 9:15:00 PM 6.1018 12.1298
1/15/2023 9:30:00 PM 6.2522 12.3154
1/15/2023 9:45:00 PM 6.3125 12.3073
1/15/2023 10:00:00 PM 6.1388 12.2683
1/15/2023 10:15:00 PM 6.0817 12.1474
1/15/2023 10:30:00 PM 6.0616 12.0785
1/15/2023 10:45:00 PM 6.0533 12.0381
1/15/2023 11:00:00 PM 6.0517 12.0326
1/15/2023 11:15:00 PM 6.0493 11.9468
1/15/2023 11:30:00 PM 6.0703 11.8354
1/15/2023 11:45:00 PM 6.1152 11.8
1/16/2023 12:00:00 AM 6.3514 11.8389
1/16/2023 12:15:00 AM 6.2304 11.7818
1/16/2023 12:30:00 AM 6.0811 11.7225
1/16/2023 12:45:00 AM 6.0623 11.652
1/16/2023 1:00:00 AM 6.0599 11.6093
1/16/2023 1:15:00 AM 6.0518 11.6237
1/16/2023 1:30:00 AM 6.0479 11.6584
1/16/2023 1:45:00 AM 6.0519 11.624
1/16/2023 2:00:00 AM 6.1347 11.5162
1/16/2023 2:15:00 AM 6.2848 11.4585
1/16/2023 2:30:00 AM 6.37 11.4995
1/16/2023 2:45:00 AM 6.4022 11.5
1/16/2023 3:00:00 AM 6.124 11.5609
1/16/2023 3:15:00 AM 6.0555 11.4376
1/16/2023 3:30:00 AM 6.0438 11.4914
1/16/2023 3:45:00 AM 6.0431 11.4429
1/16/2023 4:00:00 AM 6.0434 11.6184
1/16/2023 4:15:00 AM 6.0486 11.4781
1/16/2023 4:30:00 AM 6.1014 11.3369
1/16/2023 4:45:00 AM 6.2471 11.2498
1/16/2023 5:00:00 AM 6.3625 11.303
1/16/2023 5:15:00 AM 6.1639 11.2365
1/16/2023 5:30:00 AM 6.0657 11.1553
1/16/2023 5:45:00 AM 6.0564 11.2
1/16/2023 6:00:00 AM 6.0478 11.1367
1/16/2023 6:15:00 AM 6.0524 11.0736
1/16/2023 6:30:00 AM 6.1314 11.022
1/16/2023 6:45:00 AM 6.2854 10.807
1/16/2023 7:00:00 AM 6.3905 10.7759
1/16/2023 7:15:00 AM 6.4079 10.7417
1/16/2023 7:30:00 AM 6.2418 10.9013
1/16/2023 7:45:00 AM 6.0826 10.7665
1/16/2023 8:00:00 AM 6.0592 10.6122
1/16/2023 8:15:00 AM 6.0526 10.5624
1/16/2023 8:30:00 AM 6.0482 12.197
1/16/2023 8:45:00 AM 6.0494 11.3
1/16/2023 9:00:00 AM 6.1216 10.817
1/16/2023 9:15:00 AM 6.2434 10.4968
1/16/2023 9:30:00 AM 6.2989 10.499
1/16/2023 9:45:00 AM 6.1001 10.4853
1/16/2023 10:00:00 AM 6.0611 10.3876
1/16/2023 10:15:00 AM 6.0558 10.2724
1/16/2023 10:30:00 AM 6.0523 10.2836
1/16/2023 10:45:00 AM 6.0525 10.2399
1/16/2023 11:00:00 AM 6.0646 10.1378
1/16/2023 11:15:00 AM 6.1632 9.9296
1/16/2023 11:30:00 AM 6.2386 9.8961
1/16/2023 11:45:00 AM 6.1292 9.8
1/16/2023 12:00:00 PM 6.0543 9.9469
1/16/2023 12:15:00 PM 6.0452 10.5327
1/16/2023 12:30:00 PM 6.0433 10.8076
1/16/2023 12:45:00 PM 6.0427 10.3224
1/16/2023 1:00:00 PM 6.0423 10.3686
1/16/2023 1:15:00 PM 6.0459 10.3139
1/16/2023 1:30:00 PM 6.0434 10.1084
1/16/2023 1:45:00 PM 6.044 10.1547
1/16/2023 2:00:00 PM 6.0434 10.3109
1/16/2023 2:15:00 PM 6.0432 10.7379
1/16/2023 2:30:00 PM 6.0453 11.1849
1/16/2023 2:45:00 PM 6.0478 11.0249
1/16/2023 3:00:00 PM 6.0476 11.0414
1/16/2023 3:15:00 PM 6.0479 10.7016
1/16/2023 3:30:00 PM 6.0476 10.4735
1/16/2023 3:45:00 PM 6.051 10.4969
1/16/2023 4:00:00 PM 6.0519 11.6383
1/16/2023 4:15:00 PM 6.0483 10.4516
1/16/2023 4:30:00 PM 6.0507 9.9739
1/16/2023 4:45:00 PM 6.0481 9.6784
1/16/2023 5:00:00 PM 6.0581 9.5421
1/16/2023 5:15:00 PM 6.1808 9.3558
1/16/2023 5:30:00 PM 6.3599 9.4164
1/16/2023 5:45:00 PM 6.4162 9.4
1/16/2023 6:00:00 PM 6.0903 9.3036
1/16/2023 6:15:00 PM 6.0343 9.1479
1/16/2023 6:30:00 PM 6.0334 9.1814
1/16/2023 6:45:00 PM 6.0345 9.1401
1/16/2023 7:00:00 PM 6.0379 9.7244
1/16/2023 7:15:00 PM 6.0401 12.2428
1/16/2023 7:30:00 PM 6.039 12.1682
1/16/2023 7:45:00 PM 6.0382 10.5631
1/16/2023 8:00:00 PM 6.0385 9.9703
1/16/2023 8:15:00 PM 6.0384 9.5293
1/16/2023 8:30:00 PM 6.0387 9.2512
1/16/2023 8:45:00 PM 6.0354 9.1
1/16/2023 9:00:00 PM 6.039 9.0544
1/16/2023 9:15:00 PM 6.0406 9.1041
1/16/2023 9:30:00 PM 6.0384 9.223
1/16/2023 9:45:00 PM 6.0384 9.3908
1/16/2023 10:00:00 PM 6.0386 9.1707
1/16/2023 10:15:00 PM 6.0381 9.2728
1/16/2023 10:30:00 PM 6.0386 10.3292
1/16/2023 10:45:00 PM 6.0399 9.5521
1/16/2023 11:00:00 PM 6.0342 9.6262
1/16/2023 11:15:00 PM 6.0318 10.553
1/16/2023 11:30:00 PM 6.0337 9.6428
1/16/2023 11:45:00 PM 6.0354 9.4
1/17/2023 12:00:00 AM 6.0337 9.1069
1/17/2023 12:15:00 AM 6.0334 8.8542
1/17/2023 12:30:00 AM 6.0329 8.8028
1/17/2023 12:45:00 AM 6.0331 8.7444
1/17/2023 1:00:00 AM 6.0316 17.1577
1/17/2023 1:15:00 AM 6.0359 10.5512
1/17/2023 1:30:00 AM 6.0336 9.2646
1/17/2023 1:45:00 AM 6.0333 10.1331
1/17/2023 2:00:00 AM 6.0338 9.9867
1/17/2023 2:15:00 AM 6.0334 9.0059
1/17/2023 2:30:00 AM 6.0338 9.1277
1/17/2023 2:45:00 AM 6.034 9.9
1/17/2023 3:00:00 AM 6.0336 9.326
1/17/2023 3:15:00 AM 6.0332 8.9942
1/17/2023 3:30:00 AM 6.0333 8.7198
1/17/2023 3:45:00 AM 6.0335 9.1617
1/17/2023 4:00:00 AM 6.034 9.3278
1/17/2023 4:15:00 AM 6.0337 8.7921
1/17/2023 4:30:00 AM 6.0345 8.6145
1/17/2023 4:45:00 AM 6.0373 8.6156
1/17/2023 5:00:00 AM 6.0423 8.4751
1/17/2023 5:15:00 AM 6.0429 8.0604
1/17/2023 5:30:00 AM 6.0429 7.8703
1/17/2023 5:45:00 AM 6.0424 7.8
1/17/2023 6:00:00 AM 6.0399 7.5884
1/17/2023 6:15:00 AM 6.0392 7.4997